Time,TemperatureF,DewpointF,PressureIn,WindDirection,WindDirectionDegrees,WindSpeedMPH,WindSpeedGustMPH,Humidity,HourlyPrecipIn,Conditions,Clouds,dailyrainin,SoftwareType,DateUTC
2013-04-08 00:00:00,48.2,43.9,30.07,SW,225,10.1,10.1,85,0.00,,,0.00,WUHU216HW,2013-04-08 04:00:00,
2013-04-08 00:05:00,48.4,43.7,30.07,SE,135,4.0,10.1,84,0.00,,,0.00,WUHU216HW,2013-04-08 04:05:00,
2013-04-08 00:06:00,48.4,43.7,30.07,SE,135,4.0,10.1,84,0.00,,,0.00,WUHU216HW,2013-04-08 04:06:00,
2013-04-08 00:07:00,48.4,43.7,30.06,SW,225,2.7,10.1,84,0.00,,,0.00,WUHU216HW,2013-04-08 04:07:00,
2013-04-08 00:10:00,48.4,43.7,30.07,West,270,1.8,7.6,84,0.00,,,0.00,WUHU216HW,2013-04-08 04:10:00,
2013-04-08 00:11:00,48.4,43.7,30.07,NW,315,1.3,7.6,84,0.00,,,0.00,WUHU216HW,2013-04-08 04:11:00,
2013-04-08 00:12:00,48.4,43.7,30.07,South,180,1.8,7.6,84,0.00,,,0.00,WUHU216HW,2013-04-08 04:12:00,
2013-04-08 00:15:00,48.4,43.7,30.06,WNW,293,4.9,6.3,84,0.00,,,0.00,WUHU216HW,2013-04-08 04:15:00,
2013-04-08 00:16:00,48.4,43.7,30.06,WSW,248,3.1,6.3,84,0.00,,,0.00,WUHU216HW,2013-04-08 04:16:00,
2013-04-08 00:17:00,48.4,43.7,30.06,SW,225,4.3,6.3,84,0.00,,,0.00,WUHU216HW,2013-04-08 04:17:00,
2013-04-08 00:20:00,48.4,43.7,30.06,SW,225,3.6,6.3,84,0.00,,,0.00,WUHU216HW,2013-04-08 04:20:00,
2013-04-08 00:21:00,48.4,43.7,30.06,WSW,248,6.9,6.9,84,0.00,,,0.00,WUHU216HW,2013-04-08 04:21:00,
2013-04-08 00:22:00,48.4,43.7,30.06,South,180,1.1,6.9,84,0.00,,,0.00,WUHU216HW,2013-04-08 04:22:00,
2013-04-08 00:25:00,48.4,43.7,30.06,SW,225,3.4,6.9,84,0.00,,,0.00,WUHU216HW,2013-04-08 04:25:00,
2013-04-08 00:26:00,48.4,43.7,30.06,SW,225,4.5,6.9,84,0.00,,,0.00,WUHU216HW,2013-04-08 04:26:00,
2013-04-08 00:27:00,48.4,43.7,30.06,SW,225,4.5,6.9,84,0.00,,,0.00,WUHU216HW,2013-04-08 04:27:00,
2013-04-08 00:30:00,48.4,43.7,30.06,SSW,203,3.1,6.9,84,0.00,,,0.00,WUHU216HW,2013-04-08 04:30:00,
2013-04-08 00:31:00,48.4,43.7,30.06,WSW,248,3.6,6.7,84,0.00,,,0.00,WUHU216HW,2013-04-08 04:31:00,
2013-04-08 00:33:00,48.4,43.7,30.06,SW,225,2.5,6.7,84,0.00,,,0.00,WUHU216HW,2013-04-08 04:33:00,
2013-04-08 00:36:00,48.4,43.5,30.06,WSW,248,5.4,6.7,83,0.00,,,0.00,WUHU216HW,2013-04-08 04:36:00,
2013-04-08 00:38:00,48.2,43.6,30.06,SSW,203,2.9,6.3,84,0.00,,,0.00,WUHU216HW,2013-04-08 04:38:00,
2013-04-08 00:39:00,48.2,43.6,30.06,SSW,203,3.4,7.6,84,0.00,,,0.00,WUHU216HW,2013-04-08 04:39:00,
2013-04-08 00:41:00,48.4,43.7,30.06,SW,225,3.6,7.6,84,0.00,,,0.00,WUHU216HW,2013-04-08 04:41:00,
2013-04-08 00:42:00,48.4,43.7,30.06,South,180,2.5,7.6,84,0.00,,,0.00,WUHU216HW,2013-04-08 04:42:00,
2013-04-08 00:43:00,48.4,43.7,30.06,SSW,203,2.2,7.6,84,0.00,,,0.00,WUHU216HW,2013-04-08 04:43:00,
2013-04-08 00:45:00,48.4,43.7,30.06,SSW,203,1.8,7.6,84,0.00,,,0.00,WUHU216HW,2013-04-08 04:45:00,
2013-04-08 00:46:00,48.4,43.7,30.06,WSW,248,1.6,7.6,84,0.00,,,0.00,WUHU216HW,2013-04-08 04:46:00,
2013-04-08 00:47:00,48.4,43.7,30.06,SSE,158,2.9,7.6,84,0.00,,,0.00,WUHU216HW,2013-04-08 04:47:00,
2013-04-08 00:48:00,48.4,43.7,30.06,SSW,203,4.3,7.6,84,0.00,,,0.00,WUHU216HW,2013-04-08 04:48:00,
2013-04-08 00:50:00,48.4,43.7,30.06,SW,225,2.7,8.7,84,0.00,,,0.00,WUHU216HW,2013-04-08 04:50:00,
2013-04-08 00:52:00,48.4,43.7,30.06,WSW,248,1.1,8.7,84,0.00,,,0.00,WUHU216HW,2013-04-08 04:52:00,
2013-04-08 00:53:00,48.4,43.7,30.06,SW,225,4.7,8.7,84,0.00,,,0.00,WUHU216HW,2013-04-08 04:53:00,
2013-04-08 00:55:00,48.4,43.5,30.06,SSW,203,2.5,8.7,83,0.00,,,0.00,WUHU216HW,2013-04-08 04:55:00,
2013-04-08 00:57:00,48.4,43.5,30.06,SSW,203,3.4,8.7,83,0.00,,,0.00,WUHU216HW,2013-04-08 04:57:00,
2013-04-08 00:58:00,48.4,43.5,30.06,North,0,1.6,8.7,83,0.00,,,0.00,WUHU216HW,2013-04-08 04:58:00,
2013-04-08 01:00:00,48.2,43.3,30.06,West,270,0.0,4.9,83,0.00,,,0.00,WUHU216HW,2013-04-08 05:00:00,
2013-04-08 01:02:00,48.4,43.5,30.06,South,180,3.1,4.7,83,0.00,,,0.00,WUHU216HW,2013-04-08 05:02:00,
2013-04-08 01:04:00,48.4,43.7,30.05,SW,225,1.1,4.9,84,0.00,,,0.00,WUHU216HW,2013-04-08 05:04:00,
2013-04-08 01:05:00,48.4,43.5,30.05,WSW,248,2.7,4.9,83,0.00,,,0.00,WUHU216HW,2013-04-08 05:05:00,
2013-04-08 01:07:00,48.4,43.5,30.05,SE,135,3.1,4.9,83,0.00,,,0.00,WUHU216HW,2013-04-08 05:07:00,
2013-04-08 01:10:00,48.2,43.3,30.05,SSE,158,3.6,4.9,83,0.00,,,0.00,WUHU216HW,2013-04-08 05:10:00,
2013-04-08 01:12:00,48.2,43.3,30.05,SW,225,2.2,4.9,83,0.00,,,0.00,WUHU216HW,2013-04-08 05:12:00,
2013-04-08 01:13:00,48.2,43.3,30.05,SW,225,2.2,4.9,83,0.00,,,0.00,WUHU216HW,2013-04-08 05:13:00,
2013-04-08 01:15:00,48.1,43.1,30.05,West,270,3.6,4.0,83,0.00,,,0.00,WUHU216HW,2013-04-08 05:15:00,
2013-04-08 01:18:00,48.1,43.1,30.05,SW,225,1.8,3.8,83,0.00,,,0.00,WUHU216HW,2013-04-08 05:18:00,
2013-04-08 01:20:00,48.1,43.1,30.05,SW,225,0.4,3.8,83,0.00,,,0.00,WUHU216HW,2013-04-08 05:20:00,
2013-04-08 01:23:00,48.1,43.1,30.04,SSW,203,1.6,3.6,83,0.00,,,0.00,WUHU216HW,2013-04-08 05:23:00,
2013-04-08 01:25:00,48.1,43.5,30.04,SW,225,4.9,5.8,84,0.00,,,0.00,WUHU216HW,2013-04-08 05:25:00,
2013-04-08 01:28:00,48.1,43.5,30.04,WSW,248,2.7,5.8,84,0.00,,,0.00,WUHU216HW,2013-04-08 05:28:00,
2013-04-08 01:30:00,48.1,43.1,30.04,SSW,203,2.5,5.8,83,0.00,,,0.00,WUHU216HW,2013-04-08 05:30:00,
2013-04-08 01:31:00,48.1,43.1,30.04,West,270,1.8,5.8,83,0.00,,,0.00,WUHU216HW,2013-04-08 05:31:00,
2013-04-08 01:33:00,48.1,43.1,30.04,SSW,203,1.6,6.0,83,0.00,,,0.00,WUHU216HW,2013-04-08 05:33:00,
2013-04-08 01:35:00,48.2,43.3,30.04,SW,225,1.8,6.0,83,0.00,,,0.00,WUHU216HW,2013-04-08 05:35:00,
2013-04-08 01:36:00,48.1,43.5,30.04,SW,225,4.5,7.6,84,0.00,,,0.00,WUHU216HW,2013-04-08 05:36:00,
2013-04-08 01:38:00,48.2,43.3,30.04,SW,225,4.0,7.6,83,0.00,,,0.00,WUHU216HW,2013-04-08 05:38:00,
2013-04-08 01:40:00,48.2,43.3,30.04,SSW,203,2.0,7.6,83,0.00,,,0.00,WUHU216HW,2013-04-08 05:40:00,
2013-04-08 01:42:00,48.4,43.5,30.04,SW,225,4.5,7.6,83,0.00,,,0.00,WUHU216HW,2013-04-08 05:42:00,
2013-04-08 01:43:00,48.4,43.5,30.04,SSE,158,4.3,7.6,83,0.00,,,0.00,WUHU216HW,2013-04-08 05:43:00,
2013-04-08 01:47:00,48.4,43.5,30.04,SW,225,0.0,7.2,83,0.00,,,0.00,WUHU216HW,2013-04-08 05:47:00,
2013-04-08 01:48:00,48.4,43.5,30.04,SW,225,0.9,7.2,83,0.00,,,0.00,WUHU216HW,2013-04-08 05:48:00,
2013-04-08 01:52:00,48.2,43.3,30.04,SE,135,0.4,4.7,83,0.00,,,0.00,WUHU216HW,2013-04-08 05:52:00,
2013-04-08 01:53:00,48.2,42.9,30.04,SSW,203,4.3,4.7,82,0.00,,,0.00,WUHU216HW,2013-04-08 05:53:00,
2013-04-08 01:57:00,47.9,42.7,30.03,SW,225,2.5,4.3,82,0.00,,,0.00,WUHU216HW,2013-04-08 05:57:00,
2013-04-08 01:59:00,47.9,42.7,30.04,SW,225,4.5,4.5,82,0.00,,,0.00,WUHU216HW,2013-04-08 05:59:00,
2013-04-08 02:00:00,47.9,42.9,30.04,SW,225,2.5,5.4,83,0.00,,,0.00,WUHU216HW,2013-04-08 06:00:00,
2013-04-08 02:02:00,47.9,42.9,30.03,South,180,2.9,5.4,83,0.00,,,0.00,WUHU216HW,2013-04-08 06:02:00,
2013-04-08 02:03:00,47.9,42.9,30.03,SW,225,1.1,5.4,83,0.00,,,0.00,WUHU216HW,2013-04-08 06:03:00,
2013-04-08 02:04:00,47.9,42.9,30.04,SW,225,1.3,5.4,83,0.00,,,0.00,WUHU216HW,2013-04-08 06:04:00,
2013-04-08 02:05:00,47.9,42.9,30.04,West,270,3.4,5.4,83,0.00,,,0.00,WUHU216HW,2013-04-08 06:05:00,
2013-04-08 02:07:00,47.9,42.9,30.03,WSW,248,2.0,5.4,83,0.00,,,0.00,WUHU216HW,2013-04-08 06:07:00,
2013-04-08 02:08:00,47.9,42.9,30.03,SSW,203,4.7,5.4,83,0.00,,,0.00,WUHU216HW,2013-04-08 06:08:00,
2013-04-08 02:09:00,47.9,42.9,30.03,WSW,248,7.6,7.6,83,0.00,,,0.00,WUHU216HW,2013-04-08 06:09:00,
2013-04-08 02:10:00,47.9,42.9,30.03,SW,225,4.0,7.6,83,0.00,,,0.00,WUHU216HW,2013-04-08 06:10:00,
2013-04-08 02:12:00,47.9,42.9,30.03,SSW,203,2.9,7.6,83,0.00,,,0.00,WUHU216HW,2013-04-08 06:12:00,
2013-04-08 02:13:00,47.9,42.9,30.03,SSE,158,1.3,7.6,83,0.00,,,0.00,WUHU216HW,2013-04-08 06:13:00,
2013-04-08 02:14:00,47.9,43.3,30.03,SSE,158,3.4,7.6,84,0.00,,,0.00,WUHU216HW,2013-04-08 06:14:00,
2013-04-08 02:15:00,47.9,43.3,30.03,WSW,248,5.1,7.6,84,0.00,,,0.00,WUHU216HW,2013-04-08 06:15:00,
2013-04-08 02:17:00,47.9,43.3,30.03,SW,225,3.4,7.6,84,0.00,,,0.00,WUHU216HW,2013-04-08 06:17:00,
2013-04-08 02:18:00,47.9,43.3,30.03,West,270,2.0,7.6,84,0.00,,,0.00,WUHU216HW,2013-04-08 06:18:00,
2013-04-08 02:20:00,47.9,43.3,30.03,SW,225,5.4,5.8,84,0.00,,,0.00,WUHU216HW,2013-04-08 06:20:00,
2013-04-08 02:23:00,47.9,43.3,30.03,SW,225,4.0,5.4,84,0.00,,,0.00,WUHU216HW,2013-04-08 06:23:00,
2013-04-08 02:25:00,47.9,43.6,30.03,SW,225,4.3,6.5,85,0.00,,,0.00,WUHU216HW,2013-04-08 06:25:00,
2013-04-08 02:26:00,47.9,43.6,30.03,SW,225,4.3,6.5,85,0.00,,,0.00,WUHU216HW,2013-04-08 06:26:00,
2013-04-08 02:28:00,47.9,43.6,30.03,SSE,158,3.4,6.5,85,0.00,,,0.00,WUHU216HW,2013-04-08 06:28:00,
2013-04-08 02:31:00,47.9,43.6,30.02,SW,225,5.1,6.5,85,0.00,,,0.00,WUHU216HW,2013-04-08 06:31:00,
2013-04-08 02:32:00,47.9,43.6,30.03,WSW,248,6.3,7.2,85,0.00,,,0.00,WUHU216HW,2013-04-08 06:32:00,
2013-04-08 02:34:00,47.9,43.6,30.02,SW,225,4.7,7.2,85,0.00,,,0.00,WUHU216HW,2013-04-08 06:34:00,
2013-04-08 02:36:00,47.9,43.6,30.02,West,270,4.5,7.2,85,0.00,,,0.00,WUHU216HW,2013-04-08 06:36:00,
2013-04-08 02:37:00,47.9,43.6,30.02,WSW,248,2.9,7.2,85,0.00,,,0.00,WUHU216HW,2013-04-08 06:37:00,
2013-04-08 02:39:00,47.7,43.4,30.02,WSW,248,4.7,7.2,85,0.00,,,0.00,WUHU216HW,2013-04-08 06:39:00,
2013-04-08 02:42:00,47.7,43.4,30.02,WNW,293,6.9,7.8,85,0.00,,,0.00,WUHU216HW,2013-04-08 06:42:00,
2013-04-08 02:43:00,47.7,43.4,30.02,South,180,7.2,7.8,85,0.00,,,0.00,WUHU216HW,2013-04-08 06:43:00,
2013-04-08 02:44:00,47.7,43.4,30.02,WSW,248,3.6,7.8,85,0.00,,,0.00,WUHU216HW,2013-04-08 06:44:00,
2013-04-08 02:45:00,47.7,43.4,30.02,SW,225,3.4,7.8,85,0.00,,,0.00,WUHU216HW,2013-04-08 06:45:00,
2013-04-08 02:47:00,47.7,43.4,30.02,WSW,248,6.0,7.8,85,0.00,,,0.00,WUHU216HW,2013-04-08 06:47:00,
2013-04-08 02:48:00,47.7,43.4,30.02,West,270,1.8,7.8,85,0.00,,,0.00,WUHU216HW,2013-04-08 06:48:00,
2013-04-08 02:50:00,47.7,43.4,30.02,SW,225,2.5,7.8,85,0.00,,,0.00,WUHU216HW,2013-04-08 06:50:00,
2013-04-08 02:52:00,47.7,43.4,30.02,WSW,248,3.4,7.6,85,0.00,,,0.00,WUHU216HW,2013-04-08 06:52:00,
2013-04-08 02:53:00,47.7,43.8,30.01,SSW,203,3.8,7.6,86,0.00,,,0.00,WUHU216HW,2013-04-08 06:53:00,
2013-04-08 02:55:00,47.7,43.4,30.02,WSW,248,2.5,7.6,85,0.00,,,0.00,WUHU216HW,2013-04-08 06:55:00,
2013-04-08 02:57:00,47.7,43.8,30.02,SSW,203,3.6,7.6,86,0.00,,,0.00,WUHU216HW,2013-04-08 06:57:00,
2013-04-08 02:58:00,47.7,43.4,30.01,WSW,248,4.0,7.6,85,0.00,,,0.00,WUHU216HW,2013-04-08 06:58:00,
2013-04-08 03:00:00,47.9,43.9,30.01,WSW,248,3.1,6.9,86,0.00,,,0.00,WUHU216HW,2013-04-08 07:00:00,
2013-04-08 03:03:00,47.9,43.9,30.01,WSW,248,5.6,6.9,86,0.00,,,0.00,WUHU216HW,2013-04-08 07:03:00,
2013-04-08 03:05:00,48.1,44.1,30.01,WSW,248,3.8,6.9,86,0.00,,,0.00,WUHU216HW,2013-04-08 07:05:00,
2013-04-08 03:08:00,48.2,44.3,30.01,SW,225,5.4,6.9,86,0.00,,,0.00,WUHU216HW,2013-04-08 07:08:00,
2013-04-08 03:09:00,48.2,44.3,30.01,SW,225,4.0,6.9,86,0.00,,,0.00,WUHU216HW,2013-04-08 07:09:00,
2013-04-08 03:10:00,48.2,44.3,30.01,SW,225,6.5,7.6,86,0.00,,,0.00,WUHU216HW,2013-04-08 07:10:00,
2013-04-08 03:13:00,48.4,44.4,30.01,WSW,248,4.0,8.5,86,0.00,,,0.00,WUHU216HW,2013-04-08 07:13:00,
2013-04-08 03:15:00,48.6,44.3,30.01,SW,225,3.8,8.5,85,0.00,,,0.00,WUHU216HW,2013-04-08 07:15:00,
2013-04-08 03:17:00,48.6,44.6,30.01,SSW,203,4.5,8.5,86,0.00,,,0.00,WUHU216HW,2013-04-08 07:17:00,
2013-04-08 03:18:00,48.6,44.6,30.01,SSW,203,5.1,8.5,86,0.00,,,0.00,WUHU216HW,2013-04-08 07:18:00,
2013-04-08 03:20:00,48.6,44.6,30.01,SW,225,4.5,8.5,86,0.00,,,0.00,WUHU216HW,2013-04-08 07:20:00,
2013-04-08 03:22:00,48.6,44.3,30.01,SSW,203,3.8,7.6,85,0.00,,,0.00,WUHU216HW,2013-04-08 07:22:00,
2013-04-08 03:24:00,48.6,44.3,30.01,SSW,203,3.6,7.6,85,0.00,,,0.00,WUHU216HW,2013-04-08 07:24:00,
2013-04-08 03:25:00,48.6,44.3,30.01,SW,225,2.5,7.6,85,0.00,,,0.00,WUHU216HW,2013-04-08 07:25:00,
2013-04-08 03:26:00,48.6,44.3,30.01,WSW,248,3.4,7.6,85,0.00,,,0.00,WUHU216HW,2013-04-08 07:26:00,
2013-04-08 03:27:00,48.6,44.3,30.01,West,270,5.4,7.6,85,0.00,,,0.00,WUHU216HW,2013-04-08 07:27:00,
2013-04-08 03:29:00,48.6,44.3,30.01,WSW,248,5.6,7.6,85,0.00,,,0.00,WUHU216HW,2013-04-08 07:29:00,
2013-04-08 03:30:00,48.6,44.3,30.01,West,270,6.3,7.6,85,0.00,,,0.00,WUHU216HW,2013-04-08 07:30:00,
2013-04-08 03:32:00,48.8,44.5,30.01,SSW,203,6.3,7.6,85,0.00,,,0.00,WUHU216HW,2013-04-08 07:32:00,
2013-04-08 03:35:00,48.8,44.5,30.01,SSW,203,6.0,7.6,85,0.00,,,0.00,WUHU216HW,2013-04-08 07:35:00,
2013-04-08 03:37:00,48.8,44.5,30.01,SSW,203,6.9,7.8,85,0.00,,,0.00,WUHU216HW,2013-04-08 07:37:00,
2013-04-08 03:38:00,48.8,44.5,30.01,SSW,203,4.7,7.8,85,0.00,,,0.00,WUHU216HW,2013-04-08 07:38:00,
2013-04-08 03:41:00,48.8,44.5,30.01,West,270,8.3,8.3,85,0.00,,,0.00,WUHU216HW,2013-04-08 07:41:00,
2013-04-08 03:43:00,48.8,44.5,30.01,SW,225,5.4,8.3,85,0.00,,,0.00,WUHU216HW,2013-04-08 07:43:00,
2013-04-08 03:46:00,49.0,44.7,30.01,SSW,203,6.5,8.3,85,0.00,,,0.00,WUHU216HW,2013-04-08 07:46:00,
2013-04-08 03:47:00,49.0,44.7,30.01,WSW,248,4.9,8.3,85,0.00,,,0.00,WUHU216HW,2013-04-08 07:47:00,
2013-04-08 03:48:00,48.8,44.5,30.01,SW,225,5.8,8.9,85,0.00,,,0.00,WUHU216HW,2013-04-08 07:48:00,
2013-04-08 03:51:00,49.0,44.7,30.01,WSW,248,5.1,8.9,85,0.00,,,0.00,WUHU216HW,2013-04-08 07:51:00,
2013-04-08 03:52:00,49.0,44.7,30.01,WSW,248,6.0,8.9,85,0.00,,,0.00,WUHU216HW,2013-04-08 07:52:00,
2013-04-08 03:53:00,49.0,44.7,30.01,SSW,203,5.6,8.9,85,0.00,,,0.00,WUHU216HW,2013-04-08 07:53:00,
2013-04-08 03:57:00,49.0,44.7,30.01,SW,225,8.3,8.9,85,0.00,,,0.00,WUHU216HW,2013-04-08 07:57:00,
2013-04-08 03:58:00,49.0,44.7,30.01,SW,225,4.3,8.3,85,0.00,,,0.00,WUHU216HW,2013-04-08 07:58:00,
2013-04-08 04:02:00,49.0,44.7,30.01,SSW,203,4.7,10.3,85,0.00,,,0.00,WUHU216HW,2013-04-08 08:02:00,
2013-04-08 04:03:00,49.0,44.7,30.01,SW,225,6.3,10.3,85,0.00,,,0.00,WUHU216HW,2013-04-08 08:03:00,
2013-04-08 04:04:00,49.0,44.7,30.01,SW,225,4.3,10.3,85,0.00,,,0.00,WUHU216HW,2013-04-08 08:04:00,
2013-04-08 04:07:00,49.0,44.7,30.01,SSW,203,5.4,10.3,85,0.00,,,0.00,WUHU216HW,2013-04-08 08:07:00,
2013-04-08 04:09:00,49.1,44.8,30.01,West,270,2.2,10.3,85,0.00,,,0.00,WUHU216HW,2013-04-08 08:09:00,
2013-04-08 04:12:00,49.1,44.8,30.01,SSW,203,5.4,8.7,85,0.00,,,0.00,WUHU216HW,2013-04-08 08:12:00,
2013-04-08 04:13:00,49.1,44.8,30.01,SW,225,8.3,8.7,85,0.00,,,0.00,WUHU216HW,2013-04-08 08:13:00,
2013-04-08 04:14:00,49.1,44.8,30.01,West,270,5.8,8.7,85,0.00,,,0.00,WUHU216HW,2013-04-08 08:14:00,
2013-04-08 04:17:00,49.1,44.8,30.01,SW,225,2.5,8.7,85,0.00,,,0.00,WUHU216HW,2013-04-08 08:17:00,
2013-04-08 04:18:00,49.1,44.8,30.01,WSW,248,4.0,8.7,85,0.00,,,0.00,WUHU216HW,2013-04-08 08:18:00,
2013-04-08 04:19:00,49.1,44.5,30.01,SW,225,3.4,8.7,84,0.00,,,0.00,WUHU216HW,2013-04-08 08:19:00,
2013-04-08 04:23:00,49.0,44.7,30.01,SW,225,3.4,8.3,85,0.00,,,0.00,WUHU216HW,2013-04-08 08:23:00,
2013-04-08 04:24:00,49.0,44.7,30.01,SW,225,4.9,6.9,85,0.00,,,0.00,WUHU216HW,2013-04-08 08:24:00,
2013-04-08 04:25:00,49.0,44.7,30.01,West,270,5.1,6.5,85,0.00,,,0.00,WUHU216HW,2013-04-08 08:25:00,
2013-04-08 04:28:00,49.0,44.7,30.01,South,180,2.5,6.5,85,0.00,,,0.00,WUHU216HW,2013-04-08 08:28:00,
2013-04-08 04:29:00,49.0,44.7,30.01,SW,225,2.9,6.5,85,0.00,,,0.00,WUHU216HW,2013-04-08 08:29:00,
2013-04-08 04:30:00,49.0,44.7,30.01,WSW,248,4.5,6.5,85,0.00,,,0.00,WUHU216HW,2013-04-08 08:30:00,
2013-04-08 04:33:00,49.0,44.3,30.01,SSW,203,1.1,6.5,84,0.00,,,0.00,WUHU216HW,2013-04-08 08:33:00,
2013-04-08 04:34:00,49.0,44.3,30.01,SSW,203,4.9,6.5,84,0.00,,,0.00,WUHU216HW,2013-04-08 08:34:00,
2013-04-08 04:35:00,49.0,44.3,30.01,West,270,6.3,6.3,84,0.00,,,0.00,WUHU216HW,2013-04-08 08:35:00,
2013-04-08 04:37:00,49.0,44.7,30.01,WSW,248,2.5,7.6,85,0.00,,,0.00,WUHU216HW,2013-04-08 08:37:00,
2013-04-08 04:38:00,49.0,44.7,30.01,WSW,248,2.9,7.6,85,0.00,,,0.00,WUHU216HW,2013-04-08 08:38:00,
2013-04-08 04:40:00,49.0,44.7,30.01,West,270,3.4,7.6,85,0.00,,,0.00,WUHU216HW,2013-04-08 08:40:00,
2013-04-08 04:42:00,49.0,44.7,30.01,WSW,248,3.4,7.6,85,0.00,,,0.00,WUHU216HW,2013-04-08 08:42:00,
2013-04-08 04:44:00,49.0,44.7,30.01,WSW,248,4.9,7.6,85,0.00,,,0.00,WUHU216HW,2013-04-08 08:44:00,
2013-04-08 04:45:00,49.0,44.7,30.01,SSE,158,2.2,7.6,85,0.00,,,0.00,WUHU216HW,2013-04-08 08:45:00,
2013-04-08 04:47:00,49.0,44.7,30.01,SW,225,3.6,6.0,85,0.00,,,0.00,WUHU216HW,2013-04-08 08:47:00,
2013-04-08 04:49:00,49.0,44.7,30.02,South,180,4.9,6.5,85,0.00,,,0.00,WUHU216HW,2013-04-08 08:49:00,
2013-04-08 04:50:00,49.0,44.7,30.02,SW,225,5.4,6.5,85,0.00,,,0.00,WUHU216HW,2013-04-08 08:50:00,
2013-04-08 04:52:00,49.0,44.7,30.02,WSW,248,6.7,6.9,85,0.00,,,0.00,WUHU216HW,2013-04-08 08:52:00,
2013-04-08 04:54:00,49.1,44.8,30.02,SW,225,3.1,6.9,85,0.00,,,0.00,WUHU216HW,2013-04-08 08:54:00,
2013-04-08 04:55:00,49.0,44.7,30.02,SW,225,3.4,6.9,85,0.00,,,0.00,WUHU216HW,2013-04-08 08:55:00,
2013-04-08 04:57:00,49.1,44.8,30.02,SW,225,3.8,6.9,85,0.00,,,0.00,WUHU216HW,2013-04-08 08:57:00,
2013-04-08 05:00:00,49.1,44.8,30.02,WSW,248,4.0,6.9,85,0.00,,,0.00,WUHU216HW,2013-04-08 09:00:00,
2013-04-08 05:01:00,49.1,44.5,30.02,WSW,248,2.0,6.9,84,0.00,,,0.00,WUHU216HW,2013-04-08 09:01:00,
2013-04-08 05:04:00,49.1,44.8,30.02,SSW,203,2.5,5.4,85,0.00,,,0.00,WUHU216HW,2013-04-08 09:04:00,
2013-04-08 05:06:00,49.0,44.3,30.02,SW,225,2.9,5.4,84,0.00,,,0.00,WUHU216HW,2013-04-08 09:06:00,
2013-04-08 05:07:00,49.0,44.3,30.02,SSE,158,2.5,5.4,84,0.00,,,0.00,WUHU216HW,2013-04-08 09:07:00,
2013-04-08 05:09:00,49.0,44.3,30.02,SSW,203,5.4,5.4,84,0.00,,,0.00,WUHU216HW,2013-04-08 09:09:00,
2013-04-08 05:11:00,49.0,44.3,30.02,SW,225,4.3,5.4,84,0.00,,,0.00,WUHU216HW,2013-04-08 09:11:00,
2013-04-08 05:12:00,49.0,44.3,30.02,SSW,203,1.1,5.4,84,0.00,,,0.00,WUHU216HW,2013-04-08 09:12:00,
2013-04-08 05:14:00,49.0,44.7,30.02,WSW,248,6.0,6.0,85,0.00,,,0.00,WUHU216HW,2013-04-08 09:14:00,
2013-04-08 05:16:00,49.0,44.3,30.02,West,270,2.9,6.0,84,0.00,,,0.00,WUHU216HW,2013-04-08 09:16:00,
2013-04-08 05:17:00,49.0,44.3,30.02,SSW,203,5.4,6.0,84,0.00,,,0.00,WUHU216HW,2013-04-08 09:17:00,
2013-04-08 05:20:00,48.8,44.1,30.02,SSW,203,5.4,6.0,84,0.00,,,0.00,WUHU216HW,2013-04-08 09:20:00,
2013-04-08 05:22:00,48.8,44.1,30.02,WSW,248,4.5,6.0,84,0.00,,,0.00,WUHU216HW,2013-04-08 09:22:00,
2013-04-08 05:25:00,48.8,44.5,30.02,SSW,203,3.4,6.5,85,0.00,,,0.00,WUHU216HW,2013-04-08 09:25:00,
2013-04-08 05:27:00,48.8,44.5,30.03,SW,225,3.1,6.5,85,0.00,,,0.00,WUHU216HW,2013-04-08 09:27:00,
2013-04-08 05:30:00,48.8,44.5,30.02,SSW,203,3.4,6.5,85,0.00,,,0.00,WUHU216HW,2013-04-08 09:30:00,
2013-04-08 05:32:00,48.8,44.5,30.02,SW,225,2.5,5.4,85,0.00,,,0.00,WUHU216HW,2013-04-08 09:32:00,
2013-04-08 05:33:00,48.8,44.1,30.02,West,270,1.8,5.4,84,0.00,,,0.00,WUHU216HW,2013-04-08 09:33:00,
2013-04-08 05:35:00,48.6,43.9,30.02,South,180,1.8,5.4,84,0.00,,,0.00,WUHU216HW,2013-04-08 09:35:00,
2013-04-08 05:37:00,48.6,43.9,30.03,SW,225,3.8,5.4,84,0.00,,,0.00,WUHU216HW,2013-04-08 09:37:00,
2013-04-08 05:38:00,48.6,43.9,30.03,SW,225,3.4,5.4,84,0.00,,,0.00,WUHU216HW,2013-04-08 09:38:00,
2013-04-08 05:40:00,48.6,44.3,30.03,SW,225,3.1,4.3,85,0.00,,,0.00,WUHU216HW,2013-04-08 09:40:00,
2013-04-08 05:42:00,48.6,43.9,30.03,WSW,248,1.1,4.3,84,0.00,,,0.00,WUHU216HW,2013-04-08 09:42:00,
2013-04-08 05:43:00,48.6,43.9,30.03,WSW,248,4.5,4.5,84,0.00,,,0.00,WUHU216HW,2013-04-08 09:43:00,
2013-04-08 05:45:00,48.6,43.9,30.03,WSW,248,3.1,5.1,84,0.00,,,0.00,WUHU216HW,2013-04-08 09:45:00,
2013-04-08 05:47:00,48.6,43.9,30.03,SSW,203,2.0,5.1,84,0.00,,,0.00,WUHU216HW,2013-04-08 09:47:00,
2013-04-08 05:48:00,48.6,43.9,30.03,SSW,203,1.8,5.1,84,0.00,,,0.00,WUHU216HW,2013-04-08 09:48:00,
2013-04-08 05:50:00,48.6,43.9,30.03,South,180,2.9,5.1,84,0.00,,,0.00,WUHU216HW,2013-04-08 09:50:00,
2013-04-08 05:52:00,48.6,43.9,30.03,SSW,203,3.6,5.1,84,0.00,,,0.00,WUHU216HW,2013-04-08 09:52:00,
2013-04-08 05:53:00,48.6,43.9,30.03,SSW,203,3.1,5.8,84,0.00,,,0.00,WUHU216HW,2013-04-08 09:53:00,
2013-04-08 05:57:00,48.6,44.3,30.03,WSW,248,4.0,5.8,85,0.00,,,0.00,WUHU216HW,2013-04-08 09:57:00,
2013-04-08 05:58:00,48.6,44.3,30.03,SW,225,5.1,5.8,85,0.00,,,0.00,WUHU216HW,2013-04-08 09:58:00,
2013-04-08 05:59:00,48.6,43.9,30.03,WSW,248,2.7,5.8,84,0.00,,,0.00,WUHU216HW,2013-04-08 09:59:00,
2013-04-08 06:02:00,48.6,43.9,30.03,SW,225,1.8,5.8,84,0.00,,,0.00,WUHU216HW,2013-04-08 10:02:00,
2013-04-08 06:03:00,48.6,43.9,30.03,SSW,203,2.9,5.1,84,0.00,,,0.00,WUHU216HW,2013-04-08 10:03:00,
2013-04-08 06:04:00,48.6,43.9,30.03,South,180,3.4,5.1,84,0.00,,,0.00,WUHU216HW,2013-04-08 10:04:00,
2013-04-08 06:08:00,48.8,44.1,30.03,SW,225,6.7,6.7,84,0.00,,,0.00,WUHU216HW,2013-04-08 10:08:00,
2013-04-08 06:09:00,48.8,44.1,30.04,SW,225,5.1,6.7,84,0.00,,,0.00,WUHU216HW,2013-04-08 10:09:00,
2013-04-08 06:13:00,48.8,44.1,30.04,SSE,158,3.4,6.7,84,0.00,,,0.00,WUHU216HW,2013-04-08 10:13:00,
2013-04-08 06:14:00,48.8,44.1,30.04,West,270,1.6,6.7,84,0.00,,,0.00,WUHU216HW,2013-04-08 10:14:00,
2013-04-08 06:15:00,48.8,44.1,30.04,West,270,1.6,6.7,84,0.00,,,0.00,WUHU216HW,2013-04-08 10:15:00,
2013-04-08 06:18:00,48.8,44.1,30.04,SW,225,1.8,5.1,84,0.00,,,0.00,WUHU216HW,2013-04-08 10:18:00,
2013-04-08 06:19:00,49.0,44.3,30.04,SSW,203,1.8,5.1,84,0.00,,,0.00,WUHU216HW,2013-04-08 10:19:00,
2013-04-08 06:20:00,48.8,44.1,30.04,SSW,203,1.3,4.7,84,0.00,,,0.00,WUHU216HW,2013-04-08 10:20:00,
2013-04-08 06:23:00,48.8,44.1,30.04,SSE,158,3.6,4.7,84,0.00,,,0.00,WUHU216HW,2013-04-08 10:23:00,
2013-04-08 06:24:00,48.8,44.1,30.04,SSE,158,3.6,4.7,84,0.00,,,0.00,WUHU216HW,2013-04-08 10:24:00,
2013-04-08 06:25:00,48.8,44.1,30.04,SW,225,2.7,4.7,84,0.00,,,0.00,WUHU216HW,2013-04-08 10:25:00,
2013-04-08 06:27:00,48.8,44.1,30.04,SW,225,1.6,4.7,84,0.00,,,0.00,WUHU216HW,2013-04-08 10:27:00,
2013-04-08 06:29:00,48.8,44.1,30.04,SW,225,3.4,4.7,84,0.00,,,0.00,WUHU216HW,2013-04-08 10:29:00,
2013-04-08 06:30:00,48.8,44.1,30.04,SSW,203,3.8,4.7,84,0.00,,,0.00,WUHU216HW,2013-04-08 10:30:00,
2013-04-08 06:32:00,48.8,43.8,30.04,SSW,203,2.2,4.7,83,0.00,,,0.00,WUHU216HW,2013-04-08 10:32:00,
2013-04-08 06:35:00,48.6,43.9,30.04,SSE,158,2.5,3.8,84,0.00,,,0.00,WUHU216HW,2013-04-08 10:35:00,
2013-04-08 06:37:00,48.6,43.9,30.04,SW,225,2.5,4.0,84,0.00,,,0.00,WUHU216HW,2013-04-08 10:37:00,
2013-04-08 06:40:00,48.6,43.9,30.04,SW,225,3.4,4.0,84,0.00,,,0.00,WUHU216HW,2013-04-08 10:40:00,
2013-04-08 06:42:00,48.6,43.9,30.05,WSW,248,3.1,4.0,84,0.00,,,0.00,WUHU216HW,2013-04-08 10:42:00,
2013-04-08 06:45:00,48.6,43.9,30.05,SW,225,1.3,4.0,84,0.00,,,0.00,WUHU216HW,2013-04-08 10:45:00,
2013-04-08 06:46:00,48.6,43.9,30.05,SW,225,3.8,4.0,84,0.00,,,0.00,WUHU216HW,2013-04-08 10:46:00,
2013-04-08 06:47:00,48.6,43.9,30.05,WSW,248,2.7,3.8,84,0.00,,,0.00,WUHU216HW,2013-04-08 10:47:00,
2013-04-08 06:51:00,48.6,43.9,30.05,WSW,248,1.3,3.8,84,0.00,,,0.00,WUHU216HW,2013-04-08 10:51:00,
2013-04-08 06:52:00,48.6,43.9,30.05,South,180,2.5,3.8,84,0.00,,,0.00,WUHU216HW,2013-04-08 10:52:00,
2013-04-08 06:53:00,48.8,44.1,30.05,SW,225,1.1,3.8,84,0.00,,,0.00,WUHU216HW,2013-04-08 10:53:00,
2013-04-08 06:57:00,49.0,44.3,30.05,WSW,248,1.8,4.3,84,0.00,,,0.00,WUHU216HW,2013-04-08 10:57:00,
2013-04-08 06:58:00,48.8,44.1,30.05,WSW,248,3.1,4.3,84,0.00,,,0.00,WUHU216HW,2013-04-08 10:58:00,
2013-04-08 07:02:00,49.0,44.3,30.06,SW,225,5.1,5.1,84,0.00,,,0.00,WUHU216HW,2013-04-08 11:02:00,
2013-04-08 07:03:00,49.0,44.3,30.06,SSW,203,2.7,5.1,84,0.00,,,0.00,WUHU216HW,2013-04-08 11:03:00,
2013-04-08 07:07:00,49.1,44.5,30.06,WSW,248,3.4,5.1,84,0.00,,,0.00,WUHU216HW,2013-04-08 11:07:00,
2013-04-08 07:08:00,49.3,44.7,30.06,SW,225,1.6,5.1,84,0.00,,,0.00,WUHU216HW,2013-04-08 11:08:00,
2013-04-08 07:09:00,49.3,44.7,30.06,SW,225,0.9,5.1,84,0.00,,,0.00,WUHU216HW,2013-04-08 11:09:00,
2013-04-08 07:12:00,49.3,44.3,30.06,SSW,203,2.7,4.5,83,0.00,,,0.00,WUHU216HW,2013-04-08 11:12:00,
2013-04-08 07:13:00,49.3,44.3,30.06,SSW,203,2.7,4.5,83,0.00,,,0.00,WUHU216HW,2013-04-08 11:13:00,
2013-04-08 07:14:00,49.3,44.3,30.06,West,270,4.7,4.7,83,0.00,,,0.00,WUHU216HW,2013-04-08 11:14:00,
2013-04-08 07:17:00,49.5,44.5,30.06,WSW,248,2.2,4.7,83,0.00,,,0.00,WUHU216HW,2013-04-08 11:17:00,
2013-04-08 07:18:00,49.5,44.5,30.06,ESE,113,2.2,4.7,83,0.00,,,0.00,WUHU216HW,2013-04-08 11:18:00,
2013-04-08 07:20:00,49.7,45.0,30.06,SW,225,1.8,5.1,84,0.00,,,0.00,WUHU216HW,2013-04-08 11:20:00,
2013-04-08 07:23:00,49.7,45.0,30.06,WSW,248,2.0,5.1,84,0.00,,,0.00,WUHU216HW,2013-04-08 11:23:00,
2013-04-08 07:25:00,49.9,45.2,30.07,SSW,203,1.1,5.1,84,0.00,,,0.00,WUHU216HW,2013-04-08 11:25:00,
2013-04-08 07:28:00,49.9,45.2,30.07,SSW,203,2.2,5.1,84,0.00,,,0.00,WUHU216HW,2013-04-08 11:28:00,
2013-04-08 07:29:00,49.9,45.2,30.07,SW,225,3.4,4.3,84,0.00,,,0.00,WUHU216HW,2013-04-08 11:29:00,
2013-04-08 07:30:00,49.9,45.2,30.07,SW,225,2.5,4.3,84,0.00,,,0.00,WUHU216HW,2013-04-08 11:30:00,
2013-04-08 07:33:00,50.0,45.4,30.07,West,270,2.0,4.0,84,0.00,,,0.00,WUHU216HW,2013-04-08 11:33:00,
2013-04-08 07:35:00,50.0,45.4,30.07,SW,225,1.1,4.0,84,0.00,,,0.00,WUHU216HW,2013-04-08 11:35:00,
2013-04-08 07:38:00,50.2,45.2,30.07,SSW,203,2.5,4.3,83,0.00,,,0.00,WUHU216HW,2013-04-08 11:38:00,
2013-04-08 07:39:00,50.2,45.2,30.07,WSW,248,1.8,4.3,83,0.00,,,0.00,WUHU216HW,2013-04-08 11:39:00,
2013-04-08 07:40:00,50.2,45.2,30.07,WSW,248,3.4,4.3,83,0.00,,,0.00,WUHU216HW,2013-04-08 11:40:00,
2013-04-08 07:44:00,50.2,45.2,30.07,SW,225,1.1,4.3,83,0.00,,,0.00,WUHU216HW,2013-04-08 11:44:00,
2013-04-08 07:45:00,50.0,45.0,30.07,SW,225,2.0,4.0,83,0.00,,,0.00,WUHU216HW,2013-04-08 11:45:00,
2013-04-08 07:49:00,50.2,45.2,30.07,WSW,248,2.5,4.0,83,0.00,,,0.00,WUHU216HW,2013-04-08 11:49:00,
2013-04-08 07:50:00,50.2,45.2,30.07,SW,225,2.0,4.0,83,0.00,,,0.00,WUHU216HW,2013-04-08 11:50:00,
2013-04-08 07:54:00,50.4,45.4,30.07,WSW,248,3.4,4.0,83,0.00,,,0.00,WUHU216HW,2013-04-08 11:54:00,
2013-04-08 07:55:00,50.4,45.4,30.07,WSW,248,2.7,4.7,83,0.00,,,0.00,WUHU216HW,2013-04-08 11:55:00,
2013-04-08 07:59:00,50.8,45.7,30.07,SSW,203,2.7,4.7,83,0.00,,,0.00,WUHU216HW,2013-04-08 11:59:00,
2013-04-08 08:00:00,50.9,45.9,30.07,WSW,248,2.5,4.7,83,0.00,,,0.00,WUHU216HW,2013-04-08 12:00:00,
2013-04-08 08:01:00,50.9,45.9,30.07,WSW,248,2.7,4.7,83,0.00,,,0.00,WUHU216HW,2013-04-08 12:01:00,
2013-04-08 08:05:00,51.5,46.2,30.08,WSW,248,1.1,4.7,82,0.00,,,0.00,WUHU216HW,2013-04-08 12:05:00,
2013-04-08 08:06:00,51.5,46.2,30.08,SW,225,2.0,4.3,82,0.00,,,0.00,WUHU216HW,2013-04-08 12:06:00,
2013-04-08 08:07:00,51.7,46.4,30.08,WSW,248,2.5,4.3,82,0.00,,,0.00,WUHU216HW,2013-04-08 12:07:00,
2013-04-08 08:10:00,52.0,46.4,30.08,WSW,248,4.0,4.7,81,0.00,,,0.00,WUHU216HW,2013-04-08 12:10:00,
2013-04-08 08:11:00,52.0,46.1,30.08,WSW,248,3.6,4.7,80,0.00,,,0.00,WUHU216HW,2013-04-08 12:11:00,
2013-04-08 08:12:00,52.2,46.3,30.08,South,180,3.8,4.7,80,0.00,,,0.00,WUHU216HW,2013-04-08 12:12:00,
2013-04-08 08:15:00,52.2,46.3,30.08,WSW,248,1.8,4.7,80,0.00,,,0.00,WUHU216HW,2013-04-08 12:15:00,
2013-04-08 08:17:00,52.4,46.4,30.08,WSW,248,1.1,5.6,80,0.00,,,0.00,WUHU216HW,2013-04-08 12:17:00,
2013-04-08 08:20:00,52.7,46.8,30.08,WSW,248,4.3,5.6,80,0.00,,,0.00,WUHU216HW,2013-04-08 12:20:00,
2013-04-08 08:22:00,53.1,46.8,30.08,SW,225,4.7,5.6,79,0.00,,,0.00,WUHU216HW,2013-04-08 12:22:00,
2013-04-08 08:25:00,53.5,46.8,30.08,SSW,203,2.9,5.6,78,0.00,,,0.00,WUHU216HW,2013-04-08 12:25:00,
2013-04-08 08:27:00,53.5,46.8,30.07,SSW,203,4.0,5.4,78,0.00,,,0.00,WUHU216HW,2013-04-08 12:27:00,
2013-04-08 08:31:00,53.6,46.6,30.08,SW,225,2.5,6.0,77,0.00,,,0.00,WUHU216HW,2013-04-08 12:31:00,
2013-04-08 08:32:00,53.8,46.8,30.08,WSW,248,5.8,6.0,77,0.00,,,0.00,WUHU216HW,2013-04-08 12:32:00,
2013-04-08 08:36:00,54.0,47.0,30.07,SW,225,5.6,6.0,77,0.00,,,0.00,WUHU216HW,2013-04-08 12:36:00,
2013-04-08 08:37:00,54.2,47.2,30.07,South,180,3.4,6.0,77,0.00,,,0.00,WUHU216HW,2013-04-08 12:37:00,
2013-04-08 08:38:00,54.2,47.2,30.07,WSW,248,2.7,6.0,77,0.00,,,0.00,WUHU216HW,2013-04-08 12:38:00,
2013-04-08 08:41:00,54.4,47.0,30.08,West,270,5.4,5.8,76,0.00,,,0.00,WUHU216HW,2013-04-08 12:41:00,
2013-04-08 08:42:00,54.4,47.0,30.08,SW,225,3.4,5.6,76,0.00,,,0.00,WUHU216HW,2013-04-08 12:42:00,
2013-04-08 08:43:00,54.4,47.0,30.08,WSW,248,2.5,5.6,76,0.00,,,0.00,WUHU216HW,2013-04-08 12:43:00,
2013-04-08 08:47:00,54.5,47.1,30.08,SW,225,4.0,5.4,76,0.00,,,0.00,WUHU216HW,2013-04-08 12:47:00,
2013-04-08 08:48:00,54.7,47.3,30.08,SW,225,1.6,5.4,76,0.00,,,0.00,WUHU216HW,2013-04-08 12:48:00,
2013-04-08 08:52:00,54.7,47.3,30.07,SW,225,2.7,4.9,76,0.00,,,0.00,WUHU216HW,2013-04-08 12:52:00,
2013-04-08 08:53:00,54.9,47.4,30.07,SSW,203,1.8,4.9,76,0.00,,,0.00,WUHU216HW,2013-04-08 12:53:00,
2013-04-08 08:54:00,54.9,47.8,30.07,WSW,248,1.3,4.9,77,0.00,,,0.00,WUHU216HW,2013-04-08 12:54:00,
2013-04-08 08:57:00,55.4,48.3,30.07,West,270,1.3,4.9,77,0.00,,,0.00,WUHU216HW,2013-04-08 12:57:00,
2013-04-08 08:58:00,55.4,48.3,30.07,West,270,1.3,4.9,77,0.00,,,0.00,WUHU216HW,2013-04-08 12:58:00,
2013-04-08 09:00:00,55.8,48.6,30.07,SSW,203,0.2,4.9,77,0.00,,,0.00,WUHU216HW,2013-04-08 13:00:00,
2013-04-08 09:03:00,56.5,49.0,30.07,WSW,248,1.8,3.4,76,0.00,,,0.00,WUHU216HW,2013-04-08 13:03:00,
2013-04-08 09:05:00,56.9,49.0,30.07,SSW,203,2.5,3.8,75,0.00,,,0.00,WUHU216HW,2013-04-08 13:05:00,
2013-04-08 09:08:00,57.1,48.4,30.07,SW,225,3.6,6.3,73,0.00,,,0.00,WUHU216HW,2013-04-08 13:08:00,
2013-04-08 09:09:00,57.2,48.6,30.08,SW,225,6.0,6.3,73,0.00,,,0.00,WUHU216HW,2013-04-08 13:09:00,
2013-04-08 09:10:00,57.2,48.2,30.08,SSE,158,4.7,6.3,72,0.00,,,0.00,WUHU216HW,2013-04-08 13:10:00,
2013-04-08 09:13:00,57.2,48.6,30.07,SW,225,4.5,6.3,73,0.00,,,0.00,WUHU216HW,2013-04-08 13:13:00,
2013-04-08 09:14:00,57.2,48.2,30.07,West,270,3.8,6.3,72,0.00,,,0.00,WUHU216HW,2013-04-08 13:14:00,
2013-04-08 09:15:00,57.2,48.6,30.08,WSW,248,2.5,6.3,73,0.00,,,0.00,WUHU216HW,2013-04-08 13:15:00,
2013-04-08 09:19:00,57.4,48.4,30.07,WSW,248,3.4,6.0,72,0.00,,,0.00,WUHU216HW,2013-04-08 13:19:00,
2013-04-08 09:20:00,57.6,48.6,30.07,SSW,203,5.4,5.4,72,0.00,,,0.00,WUHU216HW,2013-04-08 13:20:00,
2013-04-08 09:22:00,57.8,48.8,30.07,SW,225,2.2,5.4,72,0.00,,,0.00,WUHU216HW,2013-04-08 13:22:00,
2013-04-08 09:25:00,58.1,48.8,30.07,SW,225,3.4,5.4,71,0.00,,,0.00,WUHU216HW,2013-04-08 13:25:00,
2013-04-08 09:27:00,58.7,49.3,30.07,SW,225,1.8,5.4,71,0.00,,,0.00,WUHU216HW,2013-04-08 13:27:00,
2013-04-08 09:30:00,59.0,49.7,30.07,SW,225,0.7,5.4,71,0.00,,,0.00,WUHU216HW,2013-04-08 13:30:00,
2013-04-08 09:31:00,59.0,49.7,30.07,SW,225,1.8,4.5,71,0.00,,,0.00,WUHU216HW,2013-04-08 13:31:00,
2013-04-08 09:33:00,59.4,49.7,30.07,WSW,248,1.1,3.6,70,0.00,,,0.00,WUHU216HW,2013-04-08 13:33:00,
2013-04-08 09:35:00,59.6,49.9,30.07,SSW,203,3.8,3.8,70,0.00,,,0.00,WUHU216HW,2013-04-08 13:35:00,
2013-04-08 09:37:00,60.1,50.0,30.08,SW,225,2.7,3.8,69,0.00,,,0.00,WUHU216HW,2013-04-08 13:37:00,
2013-04-08 09:38:00,60.3,50.1,30.08,SSW,203,0.9,3.8,69,0.00,,,0.00,WUHU216HW,2013-04-08 13:38:00,
2013-04-08 09:40:00,60.5,50.3,30.07,SSE,158,1.6,3.8,69,0.00,,,0.00,WUHU216HW,2013-04-08 13:40:00,
2013-04-08 09:42:00,60.5,50.3,30.07,SSW,203,0.9,3.8,69,0.00,,,0.00,WUHU216HW,2013-04-08 13:42:00,
2013-04-08 09:43:00,60.7,50.1,30.07,SSW,203,0.4,3.8,68,0.00,,,0.00,WUHU216HW,2013-04-08 13:43:00,
2013-04-08 09:45:00,60.5,50.0,30.08,SW,225,1.3,3.4,68,0.00,,,0.00,WUHU216HW,2013-04-08 13:45:00,
2013-04-08 09:48:00,60.5,49.5,30.07,SW,225,1.1,3.4,67,0.00,,,0.00,WUHU216HW,2013-04-08 13:48:00,
2013-04-08 09:52:00,59.6,48.3,30.08,South,180,0.4,2.5,66,0.00,,,0.00,WUHU216HW,2013-04-08 13:52:00,
2013-04-08 09:53:00,59.4,48.4,30.08,South,180,1.1,2.5,67,0.00,,,0.00,WUHU216HW,2013-04-08 13:53:00,
2013-04-08 09:54:00,59.2,48.2,30.08,SW,225,1.3,2.5,67,0.00,,,0.00,WUHU216HW,2013-04-08 13:54:00,
2013-04-08 09:57:00,59.0,48.1,30.09,SSW,203,2.2,3.1,67,0.00,,,0.00,WUHU216HW,2013-04-08 13:57:00,
2013-04-08 09:59:00,58.7,47.7,30.09,SW,225,3.4,3.4,67,0.00,,,0.00,WUHU216HW,2013-04-08 13:59:00,
2013-04-08 10:01:00,58.5,47.5,30.09,SSW,203,1.3,3.4,67,0.00,,,0.00,WUHU216HW,2013-04-08 14:01:00,
2013-04-08 10:02:00,58.3,47.3,30.09,SSW,203,1.1,3.4,67,0.00,,,0.00,WUHU216HW,2013-04-08 14:02:00,
2013-04-08 10:04:00,58.1,47.6,30.08,East,90,0.7,3.4,68,0.00,,,0.00,WUHU216HW,2013-04-08 14:04:00,
2013-04-08 10:06:00,58.3,47.8,30.09,SW,225,1.8,3.4,68,0.00,,,0.00,WUHU216HW,2013-04-08 14:06:00,
2013-04-08 10:07:00,58.3,47.8,30.09,SSW,203,1.6,3.4,68,0.00,,,0.00,WUHU216HW,2013-04-08 14:07:00,
2013-04-08 10:09:00,58.5,48.0,30.09,SSE,158,2.2,2.9,68,0.00,,,0.00,WUHU216HW,2013-04-08 14:09:00,
2013-04-08 10:11:00,58.9,48.3,30.09,South,180,1.8,2.9,68,0.00,,,0.00,WUHU216HW,2013-04-08 14:11:00,
2013-04-08 10:12:00,59.0,48.1,30.09,SSE,158,4.3,4.3,67,0.00,,,0.00,WUHU216HW,2013-04-08 14:12:00,
2013-04-08 10:14:00,59.2,48.7,30.09,South,180,2.0,4.3,68,0.00,,,0.00,WUHU216HW,2013-04-08 14:14:00,
2013-04-08 10:15:00,59.2,48.7,30.09,SW,225,2.9,4.3,68,0.00,,,0.00,WUHU216HW,2013-04-08 14:15:00,
2013-04-08 10:17:00,59.4,48.4,30.09,SSW,203,1.1,4.3,67,0.00,,,0.00,WUHU216HW,2013-04-08 14:17:00,
2013-04-08 10:20:00,59.6,48.6,30.09,South,180,1.1,4.3,67,0.00,,,0.00,WUHU216HW,2013-04-08 14:20:00,
2013-04-08 10:22:00,59.8,48.4,30.09,SSE,158,2.5,4.3,66,0.00,,,0.00,WUHU216HW,2013-04-08 14:22:00,
2013-04-08 10:25:00,59.6,47.8,30.09,South,180,2.5,3.4,65,0.00,,,0.00,WUHU216HW,2013-04-08 14:25:00,
2013-04-08 10:27:00,59.4,47.6,30.09,SW,225,1.6,3.4,65,0.00,,,0.00,WUHU216HW,2013-04-08 14:27:00,
2013-04-08 10:30:00,59.2,47.9,30.10,SW,225,1.1,3.4,66,0.00,,,0.00,WUHU216HW,2013-04-08 14:30:00,
2013-04-08 10:31:00,59.2,47.9,30.09,SW,225,1.3,3.4,66,0.00,,,0.00,WUHU216HW,2013-04-08 14:31:00,
2013-04-08 10:32:00,59.2,47.9,30.09,SSE,158,2.9,3.4,66,0.00,,,0.00,WUHU216HW,2013-04-08 14:32:00,
2013-04-08 10:33:00,59.4,48.1,30.09,ESE,113,1.8,2.9,66,0.00,,,0.00,WUHU216HW,2013-04-08 14:33:00,
2013-04-08 10:35:00,59.2,47.4,30.10,SW,225,2.7,2.9,65,0.00,,,0.00,WUHU216HW,2013-04-08 14:35:00,
2013-04-08 10:37:00,59.2,47.9,30.10,SSE,158,0.4,2.9,66,0.00,,,0.00,WUHU216HW,2013-04-08 14:37:00,
2013-04-08 10:38:00,59.4,48.1,30.10,SW,225,1.1,2.9,66,0.00,,,0.00,WUHU216HW,2013-04-08 14:38:00,
2013-04-08 10:41:00,59.4,48.1,30.09,West,270,1.6,3.4,66,0.00,,,0.00,WUHU216HW,2013-04-08 14:41:00,
2013-04-08 10:42:00,59.2,47.9,30.09,SE,135,1.8,3.4,66,0.00,,,0.00,WUHU216HW,2013-04-08 14:42:00,
2013-04-08 10:43:00,59.2,47.9,30.10,SE,135,0.7,3.6,66,0.00,,,0.00,WUHU216HW,2013-04-08 14:43:00,
2013-04-08 10:47:00,59.6,48.3,30.10,SSE,158,1.3,3.6,66,0.00,,,0.00,WUHU216HW,2013-04-08 14:47:00,
2013-04-08 10:48:00,59.6,48.3,30.10,SSW,203,0.9,3.6,66,0.00,,,0.00,WUHU216HW,2013-04-08 14:48:00,
2013-04-08 10:52:00,60.1,47.9,30.09,South,180,3.4,4.3,64,0.00,,,0.00,WUHU216HW,2013-04-08 14:52:00,
2013-04-08 10:53:00,60.1,48.3,30.10,SSW,203,0.9,4.3,65,0.00,,,0.00,WUHU216HW,2013-04-08 14:53:00,
2013-04-08 10:57:00,60.3,48.5,30.09,SW,225,0.9,4.3,65,0.00,,,0.00,WUHU216HW,2013-04-08 14:57:00,
2013-04-08 10:58:00,60.5,48.7,30.09,NW,315,2.5,4.3,65,0.00,,,0.00,WUHU216HW,2013-04-08 14:58:00,
2013-04-08 11:02:00,60.5,48.7,30.10,SSE,158,2.5,3.6,65,0.00,,,0.00,WUHU216HW,2013-04-08 15:02:00,
2013-04-08 11:03:00,60.5,48.7,30.10,South,180,3.1,3.6,65,0.00,,,0.00,WUHU216HW,2013-04-08 15:03:00,
2013-04-08 11:04:00,60.7,48.9,30.10,West,270,2.2,3.6,65,0.00,,,0.00,WUHU216HW,2013-04-08 15:04:00,
2013-04-08 11:07:00,61.2,49.8,30.10,WSW,248,1.1,3.6,66,0.00,,,0.00,WUHU216HW,2013-04-08 15:07:00,
2013-04-08 11:08:00,61.2,49.4,30.10,East,90,0.7,3.6,65,0.00,,,0.00,WUHU216HW,2013-04-08 15:08:00,
2013-04-08 11:09:00,61.4,49.5,30.10,SSW,203,1.6,3.6,65,0.00,,,0.00,WUHU216HW,2013-04-08 15:09:00,
2013-04-08 11:12:00,62.5,50.5,30.10,SSW,203,2.7,4.0,65,0.00,,,0.00,WUHU216HW,2013-04-08 15:12:00,
2013-04-08 11:13:00,62.5,50.1,30.10,SW,225,2.0,4.0,64,0.00,,,0.00,WUHU216HW,2013-04-08 15:13:00,
2013-04-08 11:14:00,62.6,50.7,30.10,SE,135,1.8,4.0,65,0.00,,,0.00,WUHU216HW,2013-04-08 15:14:00,
2013-04-08 11:17:00,63.7,51.3,30.09,SW,225,0.7,4.0,64,0.00,,,0.00,WUHU216HW,2013-04-08 15:17:00,
2013-04-08 11:18:00,63.7,50.4,30.09,SSE,158,1.8,4.0,62,0.00,,,0.00,WUHU216HW,2013-04-08 15:18:00,
2013-04-08 11:19:00,63.7,50.1,30.10,SSW,203,1.6,4.0,61,0.00,,,0.00,WUHU216HW,2013-04-08 15:19:00,
2013-04-08 11:22:00,63.9,51.0,30.09,SSW,203,2.0,3.4,63,0.00,,,0.00,WUHU216HW,2013-04-08 15:22:00,
2013-04-08 11:23:00,63.9,50.6,30.09,SSW,203,1.8,3.4,62,0.00,,,0.00,WUHU216HW,2013-04-08 15:23:00,
2013-04-08 11:25:00,64.1,49.9,30.09,SSW,203,3.4,3.4,60,0.00,,,0.00,WUHU216HW,2013-04-08 15:25:00,
2013-04-08 11:27:00,63.9,49.2,30.09,SSE,158,2.9,4.5,59,0.00,,,0.00,WUHU216HW,2013-04-08 15:27:00,
2013-04-08 11:28:00,63.9,49.2,30.09,West,270,2.7,4.5,59,0.00,,,0.00,WUHU216HW,2013-04-08 15:28:00,
2013-04-08 11:30:00,63.7,50.1,30.10,South,180,3.6,4.5,61,0.00,,,0.00,WUHU216HW,2013-04-08 15:30:00,
2013-04-08 11:32:00,63.4,49.7,30.10,SW,225,2.7,4.5,61,0.00,,,0.00,WUHU216HW,2013-04-08 15:32:00,
2013-04-08 11:33:00,63.5,49.9,30.10,South,180,4.0,4.5,61,0.00,,,0.00,WUHU216HW,2013-04-08 15:33:00,
2013-04-08 11:34:00,63.5,49.4,30.10,South,180,4.0,4.5,60,0.00,,,0.00,WUHU216HW,2013-04-08 15:34:00,
2013-04-08 11:35:00,63.5,49.9,30.10,SSE,158,4.7,4.7,61,0.00,,,0.00,WUHU216HW,2013-04-08 15:35:00,
2013-04-08 11:38:00,63.4,49.7,30.10,SE,135,0.4,4.7,61,0.00,,,0.00,WUHU216HW,2013-04-08 15:38:00,
2013-04-08 11:39:00,63.5,49.4,30.10,South,180,2.0,4.7,60,0.00,,,0.00,WUHU216HW,2013-04-08 15:39:00,
2013-04-08 11:40:00,63.4,49.7,30.10,SSE,158,1.3,4.7,61,0.00,,,0.00,WUHU216HW,2013-04-08 15:40:00,
2013-04-08 11:43:00,63.5,49.4,30.10,SSE,158,1.1,4.7,60,0.00,,,0.00,WUHU216HW,2013-04-08 15:43:00,
2013-04-08 11:44:00,63.4,49.2,30.10,South,180,2.0,4.7,60,0.00,,,0.00,WUHU216HW,2013-04-08 15:44:00,
2013-04-08 11:45:00,63.4,49.2,30.10,SSW,203,1.1,4.7,60,0.00,,,0.00,WUHU216HW,2013-04-08 15:45:00,
2013-04-08 11:48:00,63.0,49.0,30.09,SSE,158,0.4,2.5,60,0.00,,,0.00,WUHU216HW,2013-04-08 15:48:00,
2013-04-08 11:50:00,63.0,49.0,30.09,South,180,4.3,4.3,60,0.00,,,0.00,WUHU216HW,2013-04-08 15:50:00,
2013-04-08 11:53:00,63.0,49.0,30.10,SSW,203,1.1,4.3,60,0.00,,,0.00,WUHU216HW,2013-04-08 15:53:00,
2013-04-08 11:55:00,62.8,48.8,30.10,SSW,203,1.3,4.3,60,0.00,,,0.00,WUHU216HW,2013-04-08 15:55:00,
2013-04-08 11:56:00,62.8,48.2,30.10,SSW,203,1.8,4.3,59,0.00,,,0.00,WUHU216HW,2013-04-08 15:56:00,
2013-04-08 11:58:00,62.6,49.1,30.09,ESE,113,1.3,4.3,61,0.00,,,0.00,WUHU216HW,2013-04-08 15:58:00,
2013-04-08 12:00:00,62.6,49.1,30.09,South,180,1.3,2.5,61,0.00,,,0.00,WUHU216HW,2013-04-08 16:00:00,
2013-04-08 12:02:00,62.8,49.6,30.09,WSW,248,1.8,2.5,62,0.00,,,0.00,WUHU216HW,2013-04-08 16:02:00,
2013-04-08 12:03:00,63.0,49.8,30.09,SE,135,0.9,2.5,62,0.00,,,0.00,WUHU216HW,2013-04-08 16:03:00,
2013-04-08 12:05:00,63.2,50.0,30.10,WSW,248,2.2,2.5,62,0.00,,,0.00,WUHU216HW,2013-04-08 16:05:00,
2013-04-08 12:07:00,63.5,50.2,30.10,SSE,158,2.5,2.5,62,0.00,,,0.00,WUHU216HW,2013-04-08 16:07:00,
2013-04-08 12:08:00,63.7,50.1,30.10,SSE,158,0.9,2.7,61,0.00,,,0.00,WUHU216HW,2013-04-08 16:08:00,
2013-04-08 12:10:00,63.7,50.1,30.10,West,270,0.9,2.7,61,0.00,,,0.00,WUHU216HW,2013-04-08 16:10:00,
2013-04-08 12:12:00,64.1,50.3,30.10,SSE,158,1.6,2.7,61,0.00,,,0.00,WUHU216HW,2013-04-08 16:12:00,
2013-04-08 12:13:00,64.1,49.9,30.10,South,180,0.4,2.7,60,0.00,,,0.00,WUHU216HW,2013-04-08 16:13:00,
2013-04-08 12:15:00,64.3,50.5,30.09,SSE,158,0.7,2.7,61,0.00,,,0.00,WUHU216HW,2013-04-08 16:15:00,
2013-04-08 12:16:00,64.4,50.7,30.10,SSE,158,1.1,2.7,61,0.00,,,0.00,WUHU216HW,2013-04-08 16:16:00,
2013-04-08 12:17:00,64.6,50.4,30.10,SSW,203,0.9,1.8,60,0.00,,,0.00,WUHU216HW,2013-04-08 16:17:00,
2013-04-08 12:18:00,64.8,50.6,30.10,SSE,158,0.9,1.6,60,0.00,,,0.00,WUHU216HW,2013-04-08 16:18:00,
2013-04-08 12:20:00,64.8,50.6,30.10,South,180,1.1,3.4,60,0.00,,,0.00,WUHU216HW,2013-04-08 16:20:00,
2013-04-08 12:21:00,64.8,50.6,30.10,SSW,203,2.2,3.4,60,0.00,,,0.00,WUHU216HW,2013-04-08 16:21:00,
2013-04-08 12:22:00,65.2,50.9,30.10,SSE,158,1.6,3.4,60,0.00,,,0.00,WUHU216HW,2013-04-08 16:22:00,
2013-04-08 12:24:00,65.2,50.9,30.10,SE,135,2.5,3.4,60,0.00,,,0.00,WUHU216HW,2013-04-08 16:24:00,
2013-04-08 12:25:00,65.3,50.1,30.10,SE,135,1.1,3.4,58,0.00,,,0.00,WUHU216HW,2013-04-08 16:25:00,
2013-04-08 12:27:00,65.3,50.7,30.10,SSE,158,1.1,3.4,59,0.00,,,0.00,WUHU216HW,2013-04-08 16:27:00,
2013-04-08 12:28:00,65.2,49.0,30.10,SE,135,1.3,3.4,56,0.00,,,0.00,WUHU216HW,2013-04-08 16:28:00,
2013-04-08 12:30:00,65.0,49.8,30.10,SSE,158,2.0,3.4,58,0.00,,,0.00,WUHU216HW,2013-04-08 16:30:00,
2013-04-08 12:32:00,64.8,49.6,30.09,South,180,2.5,4.0,58,0.00,,,0.00,WUHU216HW,2013-04-08 16:32:00,
2013-04-08 12:33:00,64.6,49.4,30.10,SSW,203,1.3,4.0,58,0.00,,,0.00,WUHU216HW,2013-04-08 16:33:00,
2013-04-08 12:35:00,64.6,49.0,30.10,ESE,113,1.6,4.0,57,0.00,,,0.00,WUHU216HW,2013-04-08 16:35:00,
2013-04-08 12:37:00,64.4,49.2,30.10,SW,225,3.8,4.0,58,0.00,,,0.00,WUHU216HW,2013-04-08 16:37:00,
2013-04-08 12:38:00,64.1,48.4,30.10,SSE,158,1.8,4.0,57,0.00,,,0.00,WUHU216HW,2013-04-08 16:38:00,
2013-04-08 12:40:00,63.7,48.6,30.10,SE,135,0.9,4.0,58,0.00,,,0.00,WUHU216HW,2013-04-08 16:40:00,
2013-04-08 12:42:00,63.4,48.2,30.10,South,180,1.6,3.8,58,0.00,,,0.00,WUHU216HW,2013-04-08 16:42:00,
2013-04-08 12:43:00,63.2,48.6,30.10,SSE,158,1.8,3.8,59,0.00,,,0.00,WUHU216HW,2013-04-08 16:43:00,
2013-04-08 12:45:00,63.0,48.4,30.10,SE,135,1.8,3.8,59,0.00,,,0.00,WUHU216HW,2013-04-08 16:45:00,
2013-04-08 12:47:00,62.8,48.2,30.10,SSE,158,1.8,3.4,59,0.00,,,0.00,WUHU216HW,2013-04-08 16:47:00,
2013-04-08 12:48:00,62.8,48.2,30.10,SW,225,1.6,3.4,59,0.00,,,0.00,WUHU216HW,2013-04-08 16:48:00,
2013-04-08 12:51:00,62.5,48.4,30.10,SSW,203,2.5,3.4,60,0.00,,,0.00,WUHU216HW,2013-04-08 16:51:00,
2013-04-08 12:52:00,62.5,48.9,30.10,SSW,203,3.1,3.4,61,0.00,,,0.00,WUHU216HW,2013-04-08 16:52:00,
2013-04-08 12:53:00,62.5,48.9,30.10,SW,225,2.2,3.4,61,0.00,,,0.00,WUHU216HW,2013-04-08 16:53:00,
2013-04-08 12:56:00,62.6,49.1,30.10,SE,135,1.3,3.4,61,0.00,,,0.00,WUHU216HW,2013-04-08 16:56:00,
2013-04-08 12:57:00,62.6,48.6,30.10,SSW,203,2.7,3.4,60,0.00,,,0.00,WUHU216HW,2013-04-08 16:57:00,
2013-04-08 12:58:00,62.6,49.1,30.10,SSW,203,2.7,3.4,61,0.00,,,0.00,WUHU216HW,2013-04-08 16:58:00,
2013-04-08 12:59:00,62.6,49.1,30.10,SSE,158,0.9,3.4,61,0.00,,,0.00,WUHU216HW,2013-04-08 16:59:00,
2013-04-08 13:02:00,62.6,49.4,30.10,South,180,2.0,3.4,62,0.00,,,0.00,WUHU216HW,2013-04-08 17:02:00,
2013-04-08 13:03:00,62.6,49.1,30.09,SW,225,1.6,3.4,61,0.00,,,0.00,WUHU216HW,2013-04-08 17:03:00,
2013-04-08 13:04:00,62.8,49.1,30.09,SSE,158,3.4,3.4,61,0.00,,,0.00,WUHU216HW,2013-04-08 17:04:00,
2013-04-08 13:05:00,62.6,49.1,30.09,SSE,158,1.8,3.4,61,0.00,,,0.00,WUHU216HW,2013-04-08 17:05:00,
2013-04-08 13:07:00,62.6,49.1,30.09,South,180,1.3,3.4,61,0.00,,,0.00,WUHU216HW,2013-04-08 17:07:00,
2013-04-08 13:09:00,62.6,49.1,30.09,South,180,2.0,3.4,61,0.00,,,0.00,WUHU216HW,2013-04-08 17:09:00,
2013-04-08 13:10:00,62.6,49.1,30.09,North,0,2.5,3.4,61,0.00,,,0.00,WUHU216HW,2013-04-08 17:10:00,
2013-04-08 13:12:00,62.8,49.1,30.09,West,270,3.1,3.4,61,0.00,,,0.00,WUHU216HW,2013-04-08 17:12:00,
2013-04-08 13:15:00,62.6,48.6,30.09,SSW,203,1.8,3.4,60,0.00,,,0.00,WUHU216HW,2013-04-08 17:15:00,
2013-04-08 13:16:00,62.6,48.6,30.09,SSE,158,1.1,3.4,60,0.00,,,0.00,WUHU216HW,2013-04-08 17:16:00,
2013-04-08 13:17:00,62.1,48.2,30.09,West,270,2.0,3.4,60,0.00,,,0.00,WUHU216HW,2013-04-08 17:17:00,
2013-04-08 13:20:00,61.7,48.6,30.09,SW,225,1.6,3.4,62,0.00,,,0.00,WUHU216HW,2013-04-08 17:20:00,
2013-04-08 13:21:00,61.6,48.4,30.09,SW,225,1.1,3.4,62,0.00,,,0.00,WUHU216HW,2013-04-08 17:21:00,
2013-04-08 13:22:00,61.7,48.6,30.09,SSE,158,2.0,3.1,62,0.00,,,0.00,WUHU216HW,2013-04-08 17:22:00,
2013-04-08 13:25:00,61.9,49.2,30.09,SSW,203,1.1,2.7,63,0.00,,,0.00,WUHU216HW,2013-04-08 17:25:00,
2013-04-08 13:26:00,61.9,49.2,30.09,SSE,158,2.5,2.7,63,0.00,,,0.00,WUHU216HW,2013-04-08 17:26:00,
2013-04-08 13:28:00,62.1,49.0,30.09,South,180,3.4,3.4,62,0.00,,,0.00,WUHU216HW,2013-04-08 17:28:00,
2013-04-08 13:30:00,62.1,48.5,30.09,SSE,158,1.6,4.0,61,0.00,,,0.00,WUHU216HW,2013-04-08 17:30:00,
2013-04-08 13:31:00,62.1,49.0,30.09,SSE,158,1.6,4.0,62,0.00,,,0.00,WUHU216HW,2013-04-08 17:31:00,
2013-04-08 13:32:00,62.3,49.2,30.09,ESE,113,1.6,4.0,62,0.00,,,0.00,WUHU216HW,2013-04-08 17:32:00,
2013-04-08 13:33:00,62.3,49.2,30.09,SSW,203,1.8,4.0,62,0.00,,,0.00,WUHU216HW,2013-04-08 17:33:00,
2013-04-08 13:35:00,62.5,49.2,30.09,SSE,158,2.7,4.0,62,0.00,,,0.00,WUHU216HW,2013-04-08 17:35:00,
2013-04-08 13:36:00,62.5,48.9,30.09,SE,135,3.4,4.0,61,0.00,,,0.00,WUHU216HW,2013-04-08 17:36:00,
2013-04-08 13:38:00,62.3,48.2,30.08,SE,135,2.2,4.0,60,0.00,,,0.00,WUHU216HW,2013-04-08 17:38:00,
2013-04-08 13:40:00,62.1,49.0,30.08,South,180,2.0,4.0,62,0.00,,,0.00,WUHU216HW,2013-04-08 17:40:00,
2013-04-08 13:41:00,62.3,49.2,30.08,SSW,203,1.8,4.0,62,0.00,,,0.00,WUHU216HW,2013-04-08 17:41:00,
2013-04-08 13:44:00,62.1,48.5,30.08,South,180,1.8,4.0,61,0.00,,,0.00,WUHU216HW,2013-04-08 17:44:00,
2013-04-08 13:46:00,61.7,48.3,30.08,SSE,158,1.8,4.0,61,0.00,,,0.00,WUHU216HW,2013-04-08 17:46:00,
2013-04-08 13:47:00,61.7,48.6,30.08,South,180,2.7,4.0,62,0.00,,,0.00,WUHU216HW,2013-04-08 17:47:00,
2013-04-08 13:49:00,61.7,48.3,30.08,SSW,203,1.8,4.0,61,0.00,,,0.00,WUHU216HW,2013-04-08 17:49:00,
2013-04-08 13:51:00,61.7,48.6,30.08,East,90,1.6,3.1,62,0.00,,,0.00,WUHU216HW,2013-04-08 17:51:00,
2013-04-08 13:52:00,61.6,48.1,30.08,SE,135,1.1,3.6,61,0.00,,,0.00,WUHU216HW,2013-04-08 17:52:00,
2013-04-08 13:55:00,61.0,48.0,30.08,South,180,4.7,4.7,62,0.00,,,0.00,WUHU216HW,2013-04-08 17:55:00,
2013-04-08 13:56:00,60.8,47.8,30.08,SW,225,1.8,4.7,62,0.00,,,0.00,WUHU216HW,2013-04-08 17:56:00,
2013-04-08 13:57:00,60.5,47.4,30.08,SW,225,2.2,4.7,62,0.00,,,0.00,WUHU216HW,2013-04-08 17:57:00,
2013-04-08 13:58:00,60.5,47.9,30.08,SE,135,2.5,4.7,63,0.00,,,0.00,WUHU216HW,2013-04-08 17:58:00,
2013-04-08 14:00:00,60.3,47.7,30.08,SW,225,2.0,4.7,63,0.00,,,0.00,WUHU216HW,2013-04-08 18:00:00,
2013-04-08 14:02:00,60.3,48.1,30.08,WSW,248,2.5,4.7,64,0.00,,,0.00,WUHU216HW,2013-04-08 18:02:00,
2013-04-08 14:03:00,60.5,48.2,30.08,SW,225,3.1,4.7,64,0.00,,,0.00,WUHU216HW,2013-04-08 18:03:00,
2013-04-08 14:05:00,60.7,48.4,30.08,SSE,158,3.1,4.7,64,0.00,,,0.00,WUHU216HW,2013-04-08 18:05:00,
2013-04-08 14:07:00,60.8,48.6,30.08,West,270,3.6,4.3,64,0.00,,,0.00,WUHU216HW,2013-04-08 18:07:00,
2013-04-08 14:08:00,60.8,48.6,30.08,West,270,4.0,4.3,64,0.00,,,0.00,WUHU216HW,2013-04-08 18:08:00,
2013-04-08 14:10:00,61.2,49.0,30.08,SSE,158,3.1,4.3,64,0.00,,,0.00,WUHU216HW,2013-04-08 18:10:00,
2013-04-08 14:12:00,61.2,48.5,30.08,SSE,158,2.7,4.3,63,0.00,,,0.00,WUHU216HW,2013-04-08 18:12:00,
2013-04-08 14:13:00,61.4,48.7,30.08,SSW,203,2.9,4.3,63,0.00,,,0.00,WUHU216HW,2013-04-08 18:13:00,
2013-04-08 14:15:00,61.4,48.7,30.08,NE,45,3.4,4.3,63,0.00,,,0.00,WUHU216HW,2013-04-08 18:15:00,
2013-04-08 14:17:00,61.4,48.7,30.08,SSW,203,2.9,4.3,63,0.00,,,0.00,WUHU216HW,2013-04-08 18:17:00,
2013-04-08 14:18:00,61.4,48.7,30.08,SW,225,2.7,4.3,63,0.00,,,0.00,WUHU216HW,2013-04-08 18:18:00,
2013-04-08 14:20:00,61.4,48.3,30.08,SW,225,3.1,4.3,62,0.00,,,0.00,WUHU216HW,2013-04-08 18:20:00,
2013-04-08 14:23:00,61.2,48.5,30.08,SW,225,2.2,4.9,63,0.00,,,0.00,WUHU216HW,2013-04-08 18:23:00,
2013-04-08 14:25:00,61.2,48.5,30.07,SSW,203,2.5,4.9,63,0.00,,,0.00,WUHU216HW,2013-04-08 18:25:00,
2013-04-08 14:28:00,61.0,48.0,30.08,SSW,203,1.3,4.9,62,0.00,,,0.00,WUHU216HW,2013-04-08 18:28:00,
2013-04-08 14:30:00,60.8,48.3,30.07,SSW,203,2.0,4.9,63,0.00,,,0.00,WUHU216HW,2013-04-08 18:30:00,
2013-04-08 14:33:00,60.8,48.3,30.07,SSE,158,2.5,4.3,63,0.00,,,0.00,WUHU216HW,2013-04-08 18:33:00,
2013-04-08 14:35:00,60.7,48.1,30.07,SW,225,1.3,3.4,63,0.00,,,0.00,WUHU216HW,2013-04-08 18:35:00,
2013-04-08 14:38:00,60.5,48.2,30.07,West,270,2.7,2.7,64,0.00,,,0.00,WUHU216HW,2013-04-08 18:38:00,
2013-04-08 14:40:00,60.5,48.2,30.07,South,180,1.3,2.7,64,0.00,,,0.00,WUHU216HW,2013-04-08 18:40:00,
2013-04-08 14:43:00,60.5,48.2,30.07,SW,225,2.9,3.4,64,0.00,,,0.00,WUHU216HW,2013-04-08 18:43:00,
2013-04-08 14:45:00,60.3,47.7,30.07,SSE,158,3.4,3.4,63,0.00,,,0.00,WUHU216HW,2013-04-08 18:45:00,
2013-04-08 14:48:00,60.1,47.5,30.08,SSE,158,2.7,4.9,63,0.00,,,0.00,WUHU216HW,2013-04-08 18:48:00,
2013-04-08 14:50:00,60.1,47.9,30.08,SE,135,2.9,4.9,64,0.00,,,0.00,WUHU216HW,2013-04-08 18:50:00,
2013-04-08 14:53:00,60.3,48.1,30.07,SSW,203,3.1,4.9,64,0.00,,,0.00,WUHU216HW,2013-04-08 18:53:00,
2013-04-08 14:54:00,60.3,48.1,30.07,SSW,203,3.1,4.9,64,0.00,,,0.00,WUHU216HW,2013-04-08 18:54:00,
2013-04-08 14:55:00,60.5,48.2,30.07,SSW,203,4.7,4.9,64,0.00,,,0.00,WUHU216HW,2013-04-08 18:55:00,
2013-04-08 14:59:00,60.5,47.9,30.07,SSE,158,3.8,4.7,63,0.00,,,0.00,WUHU216HW,2013-04-08 18:59:00,
2013-04-08 15:00:00,60.7,48.1,30.07,WSW,248,1.6,4.7,63,0.00,,,0.00,WUHU216HW,2013-04-08 19:00:00,
2013-04-08 15:01:00,60.7,48.1,30.07,SSW,203,2.0,4.7,63,0.00,,,0.00,WUHU216HW,2013-04-08 19:01:00,
2013-04-08 15:04:00,60.8,48.3,30.07,South,180,4.5,6.5,63,0.00,,,0.00,WUHU216HW,2013-04-08 19:04:00,
2013-04-08 15:05:00,60.8,48.3,30.07,WSW,248,1.8,6.5,63,0.00,,,0.00,WUHU216HW,2013-04-08 19:05:00,
2013-04-08 15:06:00,60.7,48.1,30.07,West,270,2.0,6.5,63,0.00,,,0.00,WUHU216HW,2013-04-08 19:06:00,
2013-04-08 15:07:00,60.7,48.1,30.07,SSE,158,2.9,6.5,63,0.00,,,0.00,WUHU216HW,2013-04-08 19:07:00,
2013-04-08 15:10:00,60.7,48.1,30.07,SW,225,2.5,6.5,63,0.00,,,0.00,WUHU216HW,2013-04-08 19:10:00,
2013-04-08 15:11:00,60.5,47.9,30.07,South,180,1.8,6.5,63,0.00,,,0.00,WUHU216HW,2013-04-08 19:11:00,
2013-04-08 15:13:00,60.7,48.1,30.07,West,270,3.4,6.5,63,0.00,,,0.00,WUHU216HW,2013-04-08 19:13:00,
2013-04-08 15:15:00,60.5,47.9,30.06,SSE,158,1.6,5.6,63,0.00,,,0.00,WUHU216HW,2013-04-08 19:15:00,
2013-04-08 15:16:00,60.5,47.9,30.06,SW,225,1.8,5.6,63,0.00,,,0.00,WUHU216HW,2013-04-08 19:16:00,
2013-04-08 15:18:00,60.5,47.9,30.06,South,180,3.4,5.6,63,0.00,,,0.00,WUHU216HW,2013-04-08 19:18:00,
2013-04-08 15:20:00,60.7,48.1,30.06,SW,225,2.2,4.5,63,0.00,,,0.00,WUHU216HW,2013-04-08 19:20:00,
2013-04-08 15:21:00,60.7,48.1,30.06,West,270,2.7,4.5,63,0.00,,,0.00,WUHU216HW,2013-04-08 19:21:00,
2013-04-08 15:23:00,60.7,48.1,30.06,SE,135,3.4,4.5,63,0.00,,,0.00,WUHU216HW,2013-04-08 19:23:00,
2013-04-08 15:25:00,60.8,48.3,30.06,SSW,203,1.3,4.5,63,0.00,,,0.00,WUHU216HW,2013-04-08 19:25:00,
2013-04-08 15:26:00,60.8,48.3,30.06,South,180,1.3,4.5,63,0.00,,,0.00,WUHU216HW,2013-04-08 19:26:00,
2013-04-08 15:27:00,60.8,48.3,30.06,South,180,1.3,4.5,63,0.00,,,0.00,WUHU216HW,2013-04-08 19:27:00,
2013-04-08 15:29:00,60.8,48.3,30.06,WSW,248,2.7,3.4,63,0.00,,,0.00,WUHU216HW,2013-04-08 19:29:00,
2013-04-08 15:31:00,61.0,48.4,30.06,WSW,248,1.8,3.4,63,0.00,,,0.00,WUHU216HW,2013-04-08 19:31:00,
2013-04-08 15:32:00,61.2,48.5,30.06,SSW,203,3.8,3.8,63,0.00,,,0.00,WUHU216HW,2013-04-08 19:32:00,
2013-04-08 15:34:00,61.6,48.9,30.06,SE,135,1.8,4.7,63,0.00,,,0.00,WUHU216HW,2013-04-08 19:34:00,
2013-04-08 15:36:00,61.6,48.9,30.06,SSW,203,1.8,4.7,63,0.00,,,0.00,WUHU216HW,2013-04-08 19:36:00,
2013-04-08 15:37:00,61.9,49.2,30.06,SSE,158,2.0,4.7,63,0.00,,,0.00,WUHU216HW,2013-04-08 19:37:00,
2013-04-08 15:40:00,62.1,49.0,30.06,South,180,3.8,4.7,62,0.00,,,0.00,WUHU216HW,2013-04-08 19:40:00,
2013-04-08 15:41:00,62.3,49.2,30.06,SSE,158,2.5,4.7,62,0.00,,,0.00,WUHU216HW,2013-04-08 19:41:00,
2013-04-08 15:42:00,62.3,49.2,30.06,SSE,158,2.7,3.8,62,0.00,,,0.00,WUHU216HW,2013-04-08 19:42:00,
2013-04-08 15:43:00,62.3,49.2,30.06,SSW,203,3.4,3.8,62,0.00,,,0.00,WUHU216HW,2013-04-08 19:43:00,
2013-04-08 15:45:00,62.5,48.9,30.06,SW,225,1.3,3.8,61,0.00,,,0.00,WUHU216HW,2013-04-08 19:45:00,
2013-04-08 15:47:00,62.6,49.1,30.06,SSW,203,0.9,3.8,61,0.00,,,0.00,WUHU216HW,2013-04-08 19:47:00,
2013-04-08 15:48:00,62.6,49.1,30.06,South,180,1.3,3.8,61,0.00,,,0.00,WUHU216HW,2013-04-08 19:48:00,
2013-04-08 15:50:00,62.8,48.8,30.05,SW,225,4.3,4.3,60,0.00,,,0.00,WUHU216HW,2013-04-08 19:50:00,
2013-04-08 15:52:00,63.0,49.3,30.05,SW,225,3.1,4.3,61,0.00,,,0.00,WUHU216HW,2013-04-08 19:52:00,
2013-04-08 15:53:00,63.0,49.3,30.05,SW,225,2.5,4.3,61,0.00,,,0.00,WUHU216HW,2013-04-08 19:53:00,
2013-04-08 15:56:00,63.2,49.1,30.05,WSW,248,3.4,4.3,60,0.00,,,0.00,WUHU216HW,2013-04-08 19:56:00,
2013-04-08 15:57:00,63.2,49.1,30.05,SW,225,1.8,4.3,60,0.00,,,0.00,WUHU216HW,2013-04-08 19:57:00,
2013-04-08 15:58:00,63.2,49.1,30.05,SW,225,1.8,4.3,60,0.00,,,0.00,WUHU216HW,2013-04-08 19:58:00,
2013-04-08 16:02:00,63.5,49.4,30.05,SSW,203,1.6,4.0,60,0.00,,,0.00,WUHU216HW,2013-04-08 20:02:00,
2013-04-08 16:03:00,63.7,49.6,30.05,SSE,158,2.5,4.0,60,0.00,,,0.00,WUHU216HW,2013-04-08 20:03:00,
2013-04-08 16:07:00,63.9,49.2,30.05,South,180,1.6,4.5,59,0.00,,,0.00,WUHU216HW,2013-04-08 20:07:00,
2013-04-08 16:08:00,63.9,49.2,30.05,SSW,203,1.8,4.5,59,0.00,,,0.00,WUHU216HW,2013-04-08 20:08:00,
2013-04-08 16:09:00,64.1,49.4,30.04,SSW,203,2.0,4.5,59,0.00,,,0.00,WUHU216HW,2013-04-08 20:09:00,
2013-04-08 16:12:00,64.1,49.0,30.04,SW,225,3.4,4.5,58,0.00,,,0.00,WUHU216HW,2013-04-08 20:12:00,
2013-04-08 16:13:00,63.9,49.2,30.04,South,180,2.0,4.5,59,0.00,,,0.00,WUHU216HW,2013-04-08 20:13:00,
2013-04-08 16:14:00,63.9,49.2,30.04,South,180,2.5,4.0,59,0.00,,,0.00,WUHU216HW,2013-04-08 20:14:00,
2013-04-08 16:17:00,63.5,49.0,30.04,SSE,158,3.4,4.0,59,0.00,,,0.00,WUHU216HW,2013-04-08 20:17:00,
2013-04-08 16:18:00,63.5,49.0,30.04,South,180,1.1,4.0,59,0.00,,,0.00,WUHU216HW,2013-04-08 20:18:00,
2013-04-08 16:19:00,63.4,48.8,30.04,SSE,158,1.8,4.0,59,0.00,,,0.00,WUHU216HW,2013-04-08 20:19:00,
2013-04-08 16:22:00,62.8,48.8,30.04,WSW,248,1.3,4.0,60,0.00,,,0.00,WUHU216HW,2013-04-08 20:22:00,
2013-04-08 16:23:00,62.8,48.8,30.04,South,180,2.0,4.0,60,0.00,,,0.00,WUHU216HW,2013-04-08 20:23:00,
2013-04-08 16:24:00,62.6,48.6,30.04,SW,225,1.6,3.4,60,0.00,,,0.00,WUHU216HW,2013-04-08 20:24:00,
2013-04-08 16:25:00,62.6,48.6,30.04,SSW,203,1.8,3.4,60,0.00,,,0.00,WUHU216HW,2013-04-08 20:25:00,
2013-04-08 16:28:00,62.5,48.4,30.05,South,180,1.8,2.5,60,0.00,,,0.00,WUHU216HW,2013-04-08 20:28:00,
2013-04-08 16:29:00,62.5,48.9,30.05,South,180,1.1,2.5,61,0.00,,,0.00,WUHU216HW,2013-04-08 20:29:00,
2013-04-08 16:30:00,62.3,48.7,30.05,South,180,1.1,2.5,61,0.00,,,0.00,WUHU216HW,2013-04-08 20:30:00,
2013-04-08 16:33:00,62.3,48.7,30.04,SSW,203,1.8,3.1,61,0.00,,,0.00,WUHU216HW,2013-04-08 20:33:00,
2013-04-08 16:35:00,62.3,48.7,30.04,SSW,203,0.9,5.4,61,0.00,,,0.00,WUHU216HW,2013-04-08 20:35:00,
2013-04-08 16:38:00,62.3,48.7,30.04,South,180,2.0,5.4,61,0.00,,,0.00,WUHU216HW,2013-04-08 20:38:00,
2013-04-08 16:40:00,62.3,48.7,30.04,SW,225,3.4,5.4,61,0.00,,,0.00,WUHU216HW,2013-04-08 20:40:00,
2013-04-08 16:42:00,62.3,48.7,30.04,WSW,248,2.5,5.4,61,0.00,,,0.00,WUHU216HW,2013-04-08 20:42:00,
2013-04-08 16:43:00,61.9,48.3,30.04,NNW,338,1.8,5.4,61,0.00,,,0.00,WUHU216HW,2013-04-08 20:43:00,
2013-04-08 16:45:00,61.7,48.6,30.04,SE,135,1.1,4.0,62,0.00,,,0.00,WUHU216HW,2013-04-08 20:45:00,
2013-04-08 16:47:00,61.6,48.4,30.04,South,180,1.6,4.0,62,0.00,,,0.00,WUHU216HW,2013-04-08 20:47:00,
2013-04-08 16:48:00,61.4,48.3,30.04,SW,225,2.5,4.0,62,0.00,,,0.00,WUHU216HW,2013-04-08 20:48:00,
2013-04-08 16:50:00,61.2,48.2,30.04,WSW,248,3.8,4.0,62,0.00,,,0.00,WUHU216HW,2013-04-08 20:50:00,
2013-04-08 16:52:00,61.0,48.4,30.04,SE,135,1.6,4.0,63,0.00,,,0.00,WUHU216HW,2013-04-08 20:52:00,
2013-04-08 16:53:00,61.0,48.4,30.04,SSE,158,2.0,4.0,63,0.00,,,0.00,WUHU216HW,2013-04-08 20:53:00,
2013-04-08 16:55:00,60.8,48.3,30.04,SW,225,1.8,4.0,63,0.00,,,0.00,WUHU216HW,2013-04-08 20:55:00,
2013-04-08 16:57:00,60.7,48.1,30.04,South,180,2.0,4.0,63,0.00,,,0.00,WUHU216HW,2013-04-08 20:57:00,
2013-04-08 16:58:00,60.5,47.9,30.04,SSE,158,1.1,4.0,63,0.00,,,0.00,WUHU216HW,2013-04-08 20:58:00,
2013-04-08 17:01:00,60.3,47.7,30.04,WNW,293,2.5,4.0,63,0.00,,,0.00,WUHU216HW,2013-04-08 21:01:00,
2013-04-08 17:02:00,60.1,47.5,30.04,South,180,2.0,4.0,63,0.00,,,0.00,WUHU216HW,2013-04-08 21:02:00,
2013-04-08 17:03:00,59.9,47.4,30.04,SSW,203,4.0,4.0,63,0.00,,,0.00,WUHU216HW,2013-04-08 21:03:00,
2013-04-08 17:06:00,59.6,47.3,30.04,SE,135,2.9,4.9,64,0.00,,,0.00,WUHU216HW,2013-04-08 21:06:00,
2013-04-08 17:07:00,59.4,47.2,30.04,SW,225,1.8,4.9,64,0.00,,,0.00,WUHU216HW,2013-04-08 21:07:00,
2013-04-08 17:08:00,59.4,47.2,30.04,SSW,203,1.8,4.9,64,0.00,,,0.00,WUHU216HW,2013-04-08 21:08:00,
2013-04-08 17:11:00,59.0,46.8,30.04,SW,225,0.7,4.9,64,0.00,,,0.00,WUHU216HW,2013-04-08 21:11:00,
2013-04-08 17:12:00,59.0,46.8,30.04,South,180,0.7,4.9,64,0.00,,,0.00,WUHU216HW,2013-04-08 21:12:00,
2013-04-08 17:13:00,59.0,47.3,30.04,SSW,203,3.1,4.9,65,0.00,,,0.00,WUHU216HW,2013-04-08 21:13:00,
2013-04-08 17:16:00,58.9,47.1,30.04,SE,135,4.0,4.0,65,0.00,,,0.00,WUHU216HW,2013-04-08 21:16:00,
2013-04-08 17:17:00,58.9,47.1,30.04,SE,135,4.0,4.0,65,0.00,,,0.00,WUHU216HW,2013-04-08 21:17:00,
2013-04-08 17:19:00,58.9,47.5,30.04,South,180,2.2,4.0,66,0.00,,,0.00,WUHU216HW,2013-04-08 21:19:00,
2013-04-08 17:22:00,58.9,47.5,30.04,WSW,248,2.2,4.0,66,0.00,,,0.00,WUHU216HW,2013-04-08 21:22:00,
2013-04-08 17:23:00,58.9,47.5,30.04,WSW,248,1.8,4.0,66,0.00,,,0.00,WUHU216HW,2013-04-08 21:23:00,
2013-04-08 17:24:00,58.9,47.5,30.04,SSW,203,2.9,4.0,66,0.00,,,0.00,WUHU216HW,2013-04-08 21:24:00,
2013-04-08 17:27:00,59.0,48.1,30.04,SSW,203,5.1,5.1,67,0.00,,,0.00,WUHU216HW,2013-04-08 21:27:00,
2013-04-08 17:28:00,58.9,47.9,30.04,SE,135,2.5,5.1,67,0.00,,,0.00,WUHU216HW,2013-04-08 21:28:00,
2013-04-08 17:29:00,58.9,47.5,30.04,SSW,203,3.6,5.1,66,0.00,,,0.00,WUHU216HW,2013-04-08 21:29:00,
2013-04-08 17:32:00,58.9,47.9,30.04,SSW,203,2.5,5.1,67,0.00,,,0.00,WUHU216HW,2013-04-08 21:32:00,
2013-04-08 17:33:00,59.0,48.1,30.04,WSW,248,1.6,5.1,67,0.00,,,0.00,WUHU216HW,2013-04-08 21:33:00,
2013-04-08 17:34:00,58.9,47.5,30.04,SSW,203,2.2,5.1,66,0.00,,,0.00,WUHU216HW,2013-04-08 21:34:00,
2013-04-08 17:38:00,58.7,47.4,30.04,WSW,248,2.5,3.6,66,0.00,,,0.00,WUHU216HW,2013-04-08 21:38:00,
2013-04-08 17:39:00,58.7,47.4,30.04,SW,225,1.3,4.0,66,0.00,,,0.00,WUHU216HW,2013-04-08 21:39:00,
2013-04-08 17:43:00,58.1,47.3,30.04,SW,225,1.8,5.4,67,0.00,,,0.00,WUHU216HW,2013-04-08 21:43:00,
2013-04-08 17:44:00,58.0,47.1,30.04,WSW,248,2.5,5.4,67,0.00,,,0.00,WUHU216HW,2013-04-08 21:44:00,
2013-04-08 17:48:00,57.6,47.1,30.04,SSE,158,2.5,5.4,68,0.00,,,0.00,WUHU216HW,2013-04-08 21:48:00,
2013-04-08 17:49:00,57.4,46.9,30.04,WSW,248,2.5,5.4,68,0.00,,,0.00,WUHU216HW,2013-04-08 21:49:00,
2013-04-08 17:53:00,57.1,46.5,30.04,South,180,1.6,5.1,68,0.00,,,0.00,WUHU216HW,2013-04-08 21:53:00,
2013-04-08 17:54:00,57.1,47.0,30.04,SW,225,2.2,5.1,69,0.00,,,0.00,WUHU216HW,2013-04-08 21:54:00,
2013-04-08 17:59:00,56.5,46.4,30.04,WSW,248,3.1,4.7,69,0.00,,,0.00,WUHU216HW,2013-04-08 21:59:00,
2013-04-08 18:00:00,56.5,46.4,30.04,SSE,158,2.7,4.7,69,0.00,,,0.00,WUHU216HW,2013-04-08 22:00:00,
2013-04-08 18:05:00,56.0,46.0,30.04,SW,225,0.9,4.7,69,0.00,,,0.00,WUHU216HW,2013-04-08 22:05:00,
2013-04-08 18:10:00,55.4,45.9,30.04,SSE,158,2.5,4.5,70,0.00,,,0.00,WUHU216HW,2013-04-08 22:10:00,
2013-04-08 18:15:00,55.1,45.9,30.04,WSW,248,2.5,4.0,71,0.00,,,0.00,WUHU216HW,2013-04-08 22:15:00,
2013-04-08 18:20:00,54.9,46.1,30.04,WSW,248,3.4,3.8,72,0.00,,,0.00,WUHU216HW,2013-04-08 22:20:00,
2013-04-08 18:21:00,54.9,46.1,30.04,South,180,2.7,3.8,72,0.00,,,0.00,WUHU216HW,2013-04-08 22:21:00,
2013-04-08 18:25:00,54.7,45.9,30.04,SE,135,4.7,4.7,72,0.00,,,0.00,WUHU216HW,2013-04-08 22:25:00,
2013-04-08 18:26:00,54.7,45.9,30.04,SW,225,2.2,4.7,72,0.00,,,0.00,WUHU216HW,2013-04-08 22:26:00,
2013-04-08 18:30:00,54.7,46.3,30.04,SSE,158,1.6,4.7,73,0.00,,,0.00,WUHU216HW,2013-04-08 22:30:00,
2013-04-08 18:31:00,54.7,46.3,30.04,SW,225,1.1,4.7,73,0.00,,,0.00,WUHU216HW,2013-04-08 22:31:00,
2013-04-08 18:32:00,54.7,45.9,30.04,WSW,248,1.6,4.7,72,0.00,,,0.00,WUHU216HW,2013-04-08 22:32:00,
2013-04-08 18:35:00,54.5,45.7,30.04,SSE,158,1.1,4.7,72,0.00,,,0.00,WUHU216HW,2013-04-08 22:35:00,
2013-04-08 18:36:00,54.4,45.6,30.04,WSW,248,1.6,3.8,72,0.00,,,0.00,WUHU216HW,2013-04-08 22:36:00,
2013-04-08 18:37:00,54.4,45.9,30.04,West,270,1.1,3.8,73,0.00,,,0.00,WUHU216HW,2013-04-08 22:37:00,
2013-04-08 18:40:00,54.0,45.6,30.04,SSW,203,1.6,2.5,73,0.00,,,0.00,WUHU216HW,2013-04-08 22:40:00,
2013-04-08 18:42:00,54.0,45.6,30.04,South,180,1.3,2.5,73,0.00,,,0.00,WUHU216HW,2013-04-08 22:42:00,
2013-04-08 18:43:00,54.0,45.6,30.04,SW,225,2.9,2.9,73,0.00,,,0.00,WUHU216HW,2013-04-08 22:43:00,
2013-04-08 18:45:00,53.6,45.5,30.04,WSW,248,1.6,3.6,74,0.00,,,0.00,WUHU216HW,2013-04-08 22:45:00,
2013-04-08 18:47:00,53.6,45.5,30.04,SSE,158,1.1,3.6,74,0.00,,,0.00,WUHU216HW,2013-04-08 22:47:00,
2013-04-08 18:48:00,53.6,45.5,30.04,SW,225,1.1,3.6,74,0.00,,,0.00,WUHU216HW,2013-04-08 22:48:00,
2013-04-08 18:51:00,53.5,45.7,30.04,West,270,2.0,4.0,75,0.00,,,0.00,WUHU216HW,2013-04-08 22:51:00,
2013-04-08 18:52:00,53.3,45.5,30.04,WSW,248,1.1,4.0,75,0.00,,,0.00,WUHU216HW,2013-04-08 22:52:00,
2013-04-08 18:53:00,53.1,45.4,30.04,SW,225,2.2,4.0,75,0.00,,,0.00,WUHU216HW,2013-04-08 22:53:00,
2013-04-08 18:56:00,52.9,45.2,30.04,South,180,2.0,4.5,75,0.00,,,0.00,WUHU216HW,2013-04-08 22:56:00,
2013-04-08 18:57:00,52.7,45.0,30.04,WSW,248,0.2,4.5,75,0.00,,,0.00,WUHU216HW,2013-04-08 22:57:00,
2013-04-08 18:58:00,52.6,44.9,30.04,South,180,1.6,4.5,75,0.00,,,0.00,WUHU216HW,2013-04-08 22:58:00,
2013-04-08 19:02:00,52.6,45.5,30.04,SSW,203,1.6,4.5,77,0.00,,,0.00,WUHU216HW,2013-04-08 23:02:00,
2013-04-08 19:03:00,52.6,45.5,30.04,SW,225,3.1,4.5,77,0.00,,,0.00,WUHU216HW,2013-04-08 23:03:00,
2013-04-08 19:07:00,52.4,45.1,30.04,SSW,203,2.0,4.3,76,0.00,,,0.00,WUHU216HW,2013-04-08 23:07:00,
2013-04-08 19:08:00,52.4,45.4,30.04,South,180,1.8,4.3,77,0.00,,,0.00,WUHU216HW,2013-04-08 23:08:00,
2013-04-08 19:09:00,52.4,45.1,30.04,WSW,248,2.5,4.3,76,0.00,,,0.00,WUHU216HW,2013-04-08 23:09:00,
2013-04-08 19:13:00,52.4,45.1,30.04,South,180,0.9,4.7,76,0.00,,,0.00,WUHU216HW,2013-04-08 23:13:00,
2013-04-08 19:14:00,52.4,45.1,30.04,South,180,2.0,4.7,76,0.00,,,0.00,WUHU216HW,2013-04-08 23:14:00,
2013-04-08 19:18:00,52.4,45.4,30.04,SSW,203,1.8,4.7,77,0.00,,,0.00,WUHU216HW,2013-04-08 23:18:00,
2013-04-08 19:19:00,52.2,45.5,30.04,WSW,248,1.1,3.8,78,0.00,,,0.00,WUHU216HW,2013-04-08 23:19:00,
2013-04-08 19:23:00,52.2,45.2,30.04,SW,225,1.3,3.8,77,0.00,,,0.00,WUHU216HW,2013-04-08 23:23:00,
2013-04-08 19:24:00,52.2,45.2,30.04,SSW,203,0.9,3.1,77,0.00,,,0.00,WUHU216HW,2013-04-08 23:24:00,
2013-04-08 19:25:00,52.2,45.2,30.04,SSW,203,1.8,3.1,77,0.00,,,0.00,WUHU216HW,2013-04-08 23:25:00,
2013-04-08 19:28:00,52.2,45.2,30.04,SE,135,0.9,3.1,77,0.00,,,0.00,WUHU216HW,2013-04-08 23:28:00,
2013-04-08 19:29:00,52.0,45.1,30.05,SSW,203,2.2,3.1,77,0.00,,,0.00,WUHU216HW,2013-04-08 23:29:00,
2013-04-08 19:30:00,52.0,45.1,30.05,South,180,1.1,3.1,77,0.00,,,0.00,WUHU216HW,2013-04-08 23:30:00,
2013-04-08 19:33:00,52.0,45.4,30.04,SW,225,0.7,3.1,78,0.00,,,0.00,WUHU216HW,2013-04-08 23:33:00,
2013-04-08 19:34:00,51.8,45.2,30.04,SW,225,1.1,3.1,78,0.00,,,0.00,WUHU216HW,2013-04-08 23:34:00,
2013-04-08 19:35:00,51.8,45.2,30.04,SW,225,2.2,3.1,78,0.00,,,0.00,WUHU216HW,2013-04-08 23:35:00,
2013-04-08 19:38:00,51.8,45.2,30.05,WSW,248,2.5,3.1,78,0.00,,,0.00,WUHU216HW,2013-04-08 23:38:00,
2013-04-08 19:39:00,51.7,45.0,30.05,SW,225,1.1,2.5,78,0.00,,,0.00,WUHU216HW,2013-04-08 23:39:00,
2013-04-08 19:40:00,51.7,45.0,30.05,SW,225,1.1,2.5,78,0.00,,,0.00,WUHU216HW,2013-04-08 23:40:00,
2013-04-08 19:44:00,51.5,44.8,30.05,SW,225,2.5,2.5,78,0.00,,,0.00,WUHU216HW,2013-04-08 23:44:00,
2013-04-08 19:45:00,51.5,44.8,30.05,SSE,158,0.9,2.5,78,0.00,,,0.00,WUHU216HW,2013-04-08 23:45:00,
2013-04-08 19:46:00,51.5,44.8,30.05,SSE,158,1.6,2.5,78,0.00,,,0.00,WUHU216HW,2013-04-08 23:46:00,
2013-04-08 19:50:00,51.3,44.6,30.04,West,270,0.7,2.7,78,0.00,,,0.00,WUHU216HW,2013-04-08 23:50:00,
2013-04-08 19:51:00,51.3,44.6,30.04,South,180,1.6,2.7,78,0.00,,,0.00,WUHU216HW,2013-04-08 23:51:00,
2013-04-08 19:52:00,51.1,44.8,30.04,WSW,248,1.8,2.7,79,0.00,,,0.00,WUHU216HW,2013-04-08 23:52:00,
2013-04-08 19:55:00,51.1,44.8,30.05,SW,225,1.1,2.7,79,0.00,,,0.00,WUHU216HW,2013-04-08 23:55:00,
2013-04-08 19:56:00,51.1,44.8,30.04,SSE,158,1.3,2.7,79,0.00,,,0.00,WUHU216HW,2013-04-08 23:56:00,
2013-04-08 19:57:00,50.9,44.3,30.05,WSW,248,1.3,2.7,78,0.00,,,0.00,WUHU216HW,2013-04-08 23:57:00,
2013-04-08 20:00:00,50.8,44.8,30.04,SSW,203,1.3,3.4,80,0.00,,,0.00,WUHU216HW,2013-04-09 00:00:00,
2013-04-08 20:01:00,50.8,44.5,30.04,SSW,203,2.0,3.4,79,0.00,,,0.00,WUHU216HW,2013-04-09 00:01:00,
2013-04-08 20:02:00,50.8,44.8,30.04,SSE,158,1.8,3.4,80,0.00,,,0.00,WUHU216HW,2013-04-09 00:02:00,
2013-04-08 20:05:00,50.6,44.6,30.04,SSW,203,2.5,4.3,80,0.00,,,0.00,WUHU216HW,2013-04-09 00:05:00,
2013-04-08 20:07:00,50.4,44.5,30.04,SSW,203,0.7,4.3,80,0.00,,,0.00,WUHU216HW,2013-04-09 00:07:00,
2013-04-08 20:10:00,50.2,44.3,30.04,South,180,2.2,4.3,80,0.00,,,0.00,WUHU216HW,2013-04-09 00:10:00,
2013-04-08 20:12:00,50.0,44.4,30.04,SW,225,1.1,3.4,81,0.00,,,0.00,WUHU216HW,2013-04-09 00:12:00,
2013-04-08 20:13:00,50.0,44.4,30.04,South,180,0.4,3.4,81,0.00,,,0.00,WUHU216HW,2013-04-09 00:13:00,
2013-04-08 20:15:00,50.0,44.4,30.04,SSE,158,2.7,3.4,81,0.00,,,0.00,WUHU216HW,2013-04-09 00:15:00,
2013-04-08 20:18:00,50.0,44.4,30.04,SSW,203,1.8,3.4,81,0.00,,,0.00,WUHU216HW,2013-04-09 00:18:00,
2013-04-08 20:19:00,50.0,44.4,30.04,SSW,203,1.8,3.4,81,0.00,,,0.00,WUHU216HW,2013-04-09 00:19:00,
2013-04-08 20:20:00,49.9,44.2,30.04,SW,225,1.8,3.4,81,0.00,,,0.00,WUHU216HW,2013-04-09 00:20:00,
2013-04-08 20:21:00,49.9,44.6,30.04,SW,225,4.3,4.3,82,0.00,,,0.00,WUHU216HW,2013-04-09 00:21:00,
2013-04-08 20:24:00,49.9,44.6,30.04,SSW,203,2.5,4.3,82,0.00,,,0.00,WUHU216HW,2013-04-09 00:24:00,
2013-04-08 20:25:00,49.7,44.4,30.04,WSW,248,1.1,4.3,82,0.00,,,0.00,WUHU216HW,2013-04-09 00:25:00,
2013-04-08 20:26:00,49.7,44.4,30.04,WSW,248,0.7,4.3,82,0.00,,,0.00,WUHU216HW,2013-04-09 00:26:00,
2013-04-08 20:29:00,49.7,44.4,30.04,SSW,203,0.7,4.3,82,0.00,,,0.00,WUHU216HW,2013-04-09 00:29:00,
2013-04-08 20:30:00,49.7,44.4,30.04,NE,45,3.4,4.3,82,0.00,,,0.00,WUHU216HW,2013-04-09 00:30:00,
2013-04-08 20:32:00,49.5,44.5,30.04,SW,225,0.9,3.4,83,0.00,,,0.00,WUHU216HW,2013-04-09 00:32:00,
2013-04-08 20:35:00,49.5,44.2,30.04,South,180,1.8,3.4,82,0.00,,,0.00,WUHU216HW,2013-04-09 00:35:00,
2013-04-08 20:37:00,49.5,44.5,30.04,SSW,203,1.6,3.4,83,0.00,,,0.00,WUHU216HW,2013-04-09 00:37:00,
2013-04-08 20:40:00,49.5,44.5,30.04,South,180,1.6,3.4,83,0.00,,,0.00,WUHU216HW,2013-04-09 00:40:00,
2013-04-08 20:42:00,49.3,44.3,30.04,WSW,248,2.7,2.7,83,0.00,,,0.00,WUHU216HW,2013-04-09 00:42:00,
2013-04-08 20:45:00,49.3,44.3,30.04,SW,225,0.4,2.7,83,0.00,,,0.00,WUHU216HW,2013-04-09 00:45:00,
2013-04-08 20:47:00,49.3,44.3,30.04,SW,225,0.9,2.7,83,0.00,,,0.00,WUHU216HW,2013-04-09 00:47:00,
2013-04-08 20:50:00,49.3,44.0,30.04,WSW,248,1.3,2.7,82,0.00,,,0.00,WUHU216HW,2013-04-09 00:50:00,
2013-04-08 20:52:00,49.1,44.1,30.05,SW,225,1.6,2.7,83,0.00,,,0.00,WUHU216HW,2013-04-09 00:52:00,
2013-04-08 20:55:00,49.1,44.1,30.05,SW,225,0.4,2.0,83,0.00,,,0.00,WUHU216HW,2013-04-09 00:55:00,
2013-04-08 20:56:00,49.1,44.1,30.05,South,180,0.4,2.0,83,0.00,,,0.00,WUHU216HW,2013-04-09 00:56:00,
2013-04-08 20:58:00,49.1,44.1,30.05,ESE,113,1.6,3.1,83,0.00,,,0.00,WUHU216HW,2013-04-09 00:58:00,
2013-04-08 21:00:00,49.0,44.0,30.05,WSW,248,1.8,3.1,83,0.00,,,0.00,WUHU216HW,2013-04-09 01:00:00,
2013-04-08 21:01:00,49.0,44.0,30.05,South,180,2.2,3.1,83,0.00,,,0.00,WUHU216HW,2013-04-09 01:01:00,
2013-04-08 21:03:00,49.0,44.0,30.05,SSW,203,0.4,3.1,83,0.00,,,0.00,WUHU216HW,2013-04-09 01:03:00,
2013-04-08 21:05:00,49.0,44.0,30.05,SSW,203,0.4,3.1,83,0.00,,,0.00,WUHU216HW,2013-04-09 01:05:00,
2013-04-08 21:07:00,49.0,44.0,30.06,SE,135,1.1,3.1,83,0.00,,,0.00,WUHU216HW,2013-04-09 01:07:00,
2013-04-08 21:08:00,49.0,44.0,30.06,SSW,203,1.8,2.2,83,0.00,,,0.00,WUHU216HW,2013-04-09 01:08:00,
2013-04-08 21:12:00,49.0,44.3,30.06,SW,225,2.5,2.5,84,0.00,,,0.00,WUHU216HW,2013-04-09 01:12:00,
2013-04-08 21:13:00,49.0,44.3,30.06,South,180,1.8,2.5,84,0.00,,,0.00,WUHU216HW,2013-04-09 01:13:00,
2013-04-08 21:17:00,49.0,44.3,30.06,SSW,203,1.1,2.5,84,0.00,,,0.00,WUHU216HW,2013-04-09 01:17:00,
2013-04-08 21:18:00,49.0,44.0,30.06,South,180,1.1,2.5,83,0.00,,,0.00,WUHU216HW,2013-04-09 01:18:00,
2013-04-08 21:22:00,49.0,44.0,30.06,South,180,1.6,2.5,83,0.00,,,0.00,WUHU216HW,2013-04-09 01:22:00,
2013-04-08 21:23:00,49.0,44.3,30.06,SSW,203,0.7,2.5,84,0.00,,,0.00,WUHU216HW,2013-04-09 01:23:00,
2013-04-08 21:27:00,49.0,44.0,30.06,SSW,203,1.1,2.5,83,0.00,,,0.00,WUHU216HW,2013-04-09 01:27:00,
2013-04-08 21:28:00,49.0,44.0,30.06,WSW,248,0.9,2.5,83,0.00,,,0.00,WUHU216HW,2013-04-09 01:28:00,
2013-04-08 21:32:00,49.0,44.0,30.06,SSW,203,0.9,2.5,83,0.00,,,0.00,WUHU216HW,2013-04-09 01:32:00,
2013-04-08 21:33:00,48.8,43.8,30.06,ESE,113,0.4,2.5,83,0.00,,,0.00,WUHU216HW,2013-04-09 01:33:00,
2013-04-08 21:34:00,49.0,44.0,30.06,WSW,248,0.4,2.5,83,0.00,,,0.00,WUHU216HW,2013-04-09 01:34:00,
2013-04-08 21:37:00,48.8,43.8,30.06,SSE,158,0.7,2.2,83,0.00,,,0.00,WUHU216HW,2013-04-09 01:37:00,
2013-04-08 21:38:00,48.8,44.1,30.06,SW,225,0.4,2.2,84,0.00,,,0.00,WUHU216HW,2013-04-09 01:38:00,
2013-04-08 21:39:00,48.8,43.8,30.06,SW,225,0.9,2.2,83,0.00,,,0.00,WUHU216HW,2013-04-09 01:39:00,
2013-04-08 21:42:00,48.8,43.8,30.06,WSW,248,1.3,1.8,83,0.00,,,0.00,WUHU216HW,2013-04-09 01:42:00,
2013-04-08 21:43:00,48.8,43.8,30.06,SSW,203,0.9,2.0,83,0.00,,,0.00,WUHU216HW,2013-04-09 01:43:00,
2013-04-08 21:44:00,48.8,43.8,30.06,SSW,203,0.7,2.0,83,0.00,,,0.00,WUHU216HW,2013-04-09 01:44:00,
2013-04-08 21:45:00,48.8,43.8,30.06,SSW,203,0.7,2.0,83,0.00,,,0.00,WUHU216HW,2013-04-09 01:45:00,
2013-04-08 21:47:00,48.8,43.8,30.06,WSW,248,1.8,2.0,83,0.00,,,0.00,WUHU216HW,2013-04-09 01:47:00,
2013-04-08 21:48:00,48.8,43.8,30.06,WNW,293,0.7,2.0,83,0.00,,,0.00,WUHU216HW,2013-04-09 01:48:00,
2013-04-08 21:49:00,48.8,43.8,30.06,South,180,1.3,2.0,83,0.00,,,0.00,WUHU216HW,2013-04-09 01:49:00,
2013-04-08 21:50:00,48.8,43.8,30.06,South,180,2.2,2.2,83,0.00,,,0.00,WUHU216HW,2013-04-09 01:50:00,
2013-04-08 21:52:00,48.8,43.8,30.06,SSW,203,1.8,2.2,83,0.00,,,0.00,WUHU216HW,2013-04-09 01:52:00,
2013-04-08 21:53:00,48.6,43.7,30.05,SW,225,1.3,2.2,83,0.00,,,0.00,WUHU216HW,2013-04-09 01:53:00,
2013-04-08 21:55:00,48.6,43.7,30.05,SW,225,1.1,2.2,83,0.00,,,0.00,WUHU216HW,2013-04-09 01:55:00,
2013-04-08 21:57:00,48.6,43.7,30.05,SSW,203,0.7,2.2,83,0.00,,,0.00,WUHU216HW,2013-04-09 01:57:00,
2013-04-08 21:58:00,48.6,43.7,30.05,South,180,1.1,2.2,83,0.00,,,0.00,WUHU216HW,2013-04-09 01:58:00,
2013-04-08 22:00:00,48.6,43.9,30.05,South,180,1.1,2.9,84,0.00,,,0.00,WUHU216HW,2013-04-09 02:00:00,
2013-04-08 22:02:00,48.6,43.9,30.05,South,180,1.1,2.9,84,0.00,,,0.00,WUHU216HW,2013-04-09 02:02:00,
2013-04-08 22:03:00,48.6,43.9,30.05,SSW,203,0.2,2.9,84,0.00,,,0.00,WUHU216HW,2013-04-09 02:03:00,
2013-04-08 22:05:00,48.6,43.7,30.05,SW,225,1.6,2.9,83,0.00,,,0.00,WUHU216HW,2013-04-09 02:05:00,
2013-04-08 22:07:00,48.6,43.7,30.05,SSW,203,0.9,2.9,83,0.00,,,0.00,WUHU216HW,2013-04-09 02:07:00,
2013-04-08 22:10:00,48.6,43.9,30.05,SSW,203,0.0,2.2,84,0.00,,,0.00,WUHU216HW,2013-04-09 02:10:00,
2013-04-08 22:11:00,48.6,43.9,30.05,SW,225,1.1,2.2,84,0.00,,,0.00,WUHU216HW,2013-04-09 02:11:00,
2013-04-08 22:13:00,48.6,43.9,30.05,West,270,1.3,1.8,84,0.00,,,0.00,WUHU216HW,2013-04-09 02:13:00,
2013-04-08 22:15:00,48.6,44.3,30.05,WSW,248,2.7,2.7,85,0.00,,,0.00,WUHU216HW,2013-04-09 02:15:00,
2013-04-08 22:16:00,48.6,44.3,30.05,SW,225,1.1,2.7,85,0.00,,,0.00,WUHU216HW,2013-04-09 02:16:00,
2013-04-08 22:17:00,48.6,44.3,30.05,SW,225,2.0,2.7,85,0.00,,,0.00,WUHU216HW,2013-04-09 02:17:00,
2013-04-08 22:18:00,48.6,43.9,30.05,SW,225,1.8,2.7,84,0.00,,,0.00,WUHU216HW,2013-04-09 02:18:00,
2013-04-08 22:20:00,48.6,43.9,30.05,SSW,203,1.8,2.7,84,0.00,,,0.00,WUHU216HW,2013-04-09 02:20:00,
2013-04-08 22:21:00,48.6,44.3,30.05,SW,225,2.5,2.7,85,0.00,,,0.00,WUHU216HW,2013-04-09 02:21:00,
2013-04-08 22:22:00,48.6,44.3,30.05,West,270,1.3,5.1,85,0.00,,,0.00,WUHU216HW,2013-04-09 02:22:00,
2013-04-08 22:23:00,48.6,44.3,30.05,SW,225,3.1,5.1,85,0.00,,,0.00,WUHU216HW,2013-04-09 02:23:00,
2013-04-08 22:25:00,48.8,44.5,30.06,SE,135,1.8,5.1,85,0.00,,,0.00,WUHU216HW,2013-04-09 02:25:00,
2013-04-08 22:26:00,48.8,44.5,30.05,SSW,203,2.0,5.1,85,0.00,,,0.00,WUHU216HW,2013-04-09 02:26:00,
2013-04-08 22:27:00,48.8,44.5,30.05,SW,225,1.3,5.1,85,0.00,,,0.00,WUHU216HW,2013-04-09 02:27:00,
2013-04-08 22:28:00,48.8,44.5,30.05,SW,225,0.4,5.1,85,0.00,,,0.00,WUHU216HW,2013-04-09 02:28:00,
2013-04-08 22:32:00,49.0,44.7,30.05,SSW,203,2.7,3.4,85,0.00,,,0.00,WUHU216HW,2013-04-09 02:32:00,
2013-04-08 22:33:00,49.0,44.7,30.05,SSW,203,0.9,3.4,85,0.00,,,0.00,WUHU216HW,2013-04-09 02:33:00,
2013-04-08 22:37:00,49.0,44.7,30.05,South,180,0.9,3.4,85,0.00,,,0.00,WUHU216HW,2013-04-09 02:37:00,
2013-04-08 22:38:00,49.0,44.9,30.04,SSW,203,2.0,3.4,86,0.00,,,0.00,WUHU216HW,2013-04-09 02:38:00,
2013-04-08 22:42:00,49.1,45.1,30.04,SE,135,2.5,3.4,86,0.00,,,0.00,WUHU216HW,2013-04-09 02:42:00,
2013-04-08 22:43:00,49.3,45.3,30.04,South,180,1.3,3.4,86,0.00,,,0.00,WUHU216HW,2013-04-09 02:43:00,
2013-04-08 22:44:00,49.3,45.3,30.04,SE,135,2.2,3.4,86,0.00,,,0.00,WUHU216HW,2013-04-09 02:44:00,
2013-04-08 22:47:00,49.1,44.8,30.04,SSE,158,1.3,4.5,85,0.00,,,0.00,WUHU216HW,2013-04-09 02:47:00,
2013-04-08 22:48:00,49.1,44.8,30.04,SSE,158,1.3,4.5,85,0.00,,,0.00,WUHU216HW,2013-04-09 02:48:00,
2013-04-08 22:49:00,49.1,44.8,30.04,SW,225,1.8,4.5,85,0.00,,,0.00,WUHU216HW,2013-04-09 02:49:00,
2013-04-08 22:52:00,49.1,44.8,30.04,SW,225,2.2,4.5,85,0.00,,,0.00,WUHU216HW,2013-04-09 02:52:00,
2013-04-08 22:53:00,49.1,44.8,30.04,SW,225,2.0,4.5,85,0.00,,,0.00,WUHU216HW,2013-04-09 02:53:00,
2013-04-08 22:54:00,49.1,45.1,30.04,SSW,203,4.3,4.5,86,0.00,,,0.00,WUHU216HW,2013-04-09 02:54:00,
2013-04-08 22:55:00,49.1,45.1,30.04,WSW,248,2.5,4.5,86,0.00,,,0.00,WUHU216HW,2013-04-09 02:55:00,
2013-04-08 22:57:00,49.3,45.3,30.04,SSW,203,2.2,4.3,86,0.00,,,0.00,WUHU216HW,2013-04-09 02:57:00,
2013-04-08 22:58:00,49.3,45.3,30.04,South,180,1.8,4.3,86,0.00,,,0.00,WUHU216HW,2013-04-09 02:58:00,
2013-04-08 23:00:00,49.5,45.7,30.04,SW,225,5.4,5.4,87,0.00,,,0.00,WUHU216HW,2013-04-09 03:00:00,
2013-04-08 23:02:00,49.7,45.9,30.04,NW,315,4.5,5.4,87,0.00,,,0.00,WUHU216HW,2013-04-09 03:02:00,
2013-04-08 23:03:00,49.7,45.9,30.04,SW,225,2.7,5.4,87,0.00,,,0.00,WUHU216HW,2013-04-09 03:03:00,
2013-04-08 23:05:00,49.7,45.6,30.04,West,270,2.9,5.4,86,0.00,,,0.00,WUHU216HW,2013-04-09 03:05:00,
2013-04-08 23:08:00,49.9,46.1,30.04,SE,135,2.0,5.4,87,0.00,,,0.00,WUHU216HW,2013-04-09 03:08:00,
2013-04-08 23:10:00,50.0,46.3,30.04,SW,225,2.2,5.4,87,0.00,,,0.00,WUHU216HW,2013-04-09 03:10:00,
2013-04-08 23:13:00,50.0,46.3,30.04,SW,225,2.5,6.3,87,0.00,,,0.00,WUHU216HW,2013-04-09 03:13:00,
2013-04-08 23:14:00,50.0,45.9,30.04,SW,225,2.7,6.3,86,0.00,,,0.00,WUHU216HW,2013-04-09 03:14:00,
2013-04-08 23:15:00,50.0,45.9,30.04,South,180,3.8,6.3,86,0.00,,,0.00,WUHU216HW,2013-04-09 03:15:00,
2013-04-08 23:18:00,50.2,46.1,30.04,SSW,203,2.9,6.9,86,0.00,,,0.00,WUHU216HW,2013-04-09 03:18:00,
2013-04-08 23:19:00,50.2,46.5,30.04,SSW,203,1.3,6.9,87,0.00,,,0.00,WUHU216HW,2013-04-09 03:19:00,
2013-04-08 23:20:00,50.2,46.5,30.04,SW,225,3.4,6.9,87,0.00,,,0.00,WUHU216HW,2013-04-09 03:20:00,
2013-04-08 23:23:00,50.2,46.1,30.04,South,180,3.4,6.9,86,0.00,,,0.00,WUHU216HW,2013-04-09 03:23:00,
2013-04-08 23:25:00,50.4,46.6,30.04,SW,225,2.9,6.9,87,0.00,,,0.00,WUHU216HW,2013-04-09 03:25:00,
2013-04-08 23:26:00,50.4,46.6,30.04,SSW,203,4.5,5.1,87,0.00,,,0.00,WUHU216HW,2013-04-09 03:26:00,
2013-04-08 23:28:00,50.4,46.3,30.03,SW,225,8.5,8.5,86,0.00,,,0.00,WUHU216HW,2013-04-09 03:28:00,
2013-04-08 23:30:00,50.4,46.6,30.03,SSE,158,1.8,8.5,87,0.00,,,0.00,WUHU216HW,2013-04-09 03:30:00,
2013-04-08 23:31:00,50.4,46.3,30.03,SW,225,3.4,8.5,86,0.00,,,0.00,WUHU216HW,2013-04-09 03:31:00,
2013-04-08 23:34:00,50.6,46.8,30.03,SW,225,2.5,8.5,87,0.00,,,0.00,WUHU216HW,2013-04-09 03:34:00,
2013-04-08 23:35:00,50.6,46.8,30.03,SSW,203,2.0,8.5,87,0.00,,,0.00,WUHU216HW,2013-04-09 03:35:00,
2013-04-08 23:37:00,50.6,46.4,30.03,SSW,203,2.9,8.5,86,0.00,,,0.00,WUHU216HW,2013-04-09 03:37:00,
2013-04-08 23:39:00,50.6,46.4,30.03,SW,225,3.4,6.0,86,0.00,,,0.00,WUHU216HW,2013-04-09 03:39:00,
2013-04-08 23:40:00,50.6,46.4,30.03,WSW,248,3.6,6.3,86,0.00,,,0.00,WUHU216HW,2013-04-09 03:40:00,
2013-04-08 23:41:00,50.6,46.4,30.03,SSW,203,1.8,6.3,86,0.00,,,0.00,WUHU216HW,2013-04-09 03:41:00,
2013-04-08 23:42:00,50.6,46.4,30.03,SW,225,1.8,6.3,86,0.00,,,0.00,WUHU216HW,2013-04-09 03:42:00,
2013-04-08 23:45:00,50.8,46.6,30.02,SSE,158,2.2,6.3,86,0.00,,,0.00,WUHU216HW,2013-04-09 03:45:00,
2013-04-08 23:46:00,50.8,46.6,30.02,WSW,248,2.0,6.3,86,0.00,,,0.00,WUHU216HW,2013-04-09 03:46:00,
2013-04-08 23:47:00,50.8,46.6,30.02,SW,225,4.3,6.3,86,0.00,,,0.00,WUHU216HW,2013-04-09 03:47:00,
2013-04-08 23:48:00,50.8,47.0,30.02,SSW,203,1.6,6.3,87,0.00,,,0.00,WUHU216HW,2013-04-09 03:48:00,
2013-04-08 23:50:00,50.8,47.0,30.02,WSW,248,4.0,6.3,87,0.00,,,0.00,WUHU216HW,2013-04-09 03:50:00,
2013-04-08 23:52:00,50.8,47.0,30.02,SW,225,6.3,6.9,87,0.00,,,0.00,WUHU216HW,2013-04-09 03:52:00,
2013-04-08 23:53:00,50.9,47.2,30.03,SSW,203,3.4,7.2,87,0.00,,,0.00,WUHU216HW,2013-04-09 03:53:00,
2013-04-08 23:56:00,50.9,47.2,30.02,SSW,203,2.5,7.2,87,0.00,,,0.00,WUHU216HW,2013-04-09 03:56:00,
2013-04-08 23:57:00,50.9,47.2,30.02,SSW,203,2.5,7.2,87,0.00,,,0.00,WUHU216HW,2013-04-09 03:57:00,
2013-04-08 23:58:00,50.9,46.8,30.02,SW,225,0.9,7.2,86,0.00,,,0.00,WUHU216HW,2013-04-09 03:58:00,